FW0860 Weather Reports


Display with metric or nautical units.
time (UTC)temp
F
wind
direction
speed
MPH
gust
MPH
rain 1hr
in
rain 24hr
in
rain mn
in
humidity
%
barometer
mb
20260906203232 104 223 4.0 11.0 0.00 0.00 0.00 24 1009.4
20260906203140 104 226 4.0 11.0 0.00 0.00 0.00 24 1009.4
20260906203042 105 240 3.0 11.0 0.00 0.00 0.00 24 1009.4
20260906202924 105 253 2.0 12.0 0.00 0.00 0.00 25 1009.4
20260906202837 104 248 3.0 14.0 0.00 0.00 0.00 25 1009.4
20260906202719 104 242 5.0 14.0 0.00 0.00 0.00 24 1009.5
20260906202650 105 242 5.0 14.0 0.00 0.00 0.00 24 1009.5
20260906202550 105 222 4.0 14.0 0.00 0.00 0.00 24 1009.5
20260906202437 105 224 3.0 14.0 0.00 0.00 0.00 24 1009.5
20260906202317 105 228 4.0 14.0 0.00 0.00 0.00 24 1009.5
20260906202219 105 250 6.0 14.0 0.00 0.00 0.00 24 1009.5
20260906202154 105 249 5.0 14.0 0.00 0.00 0.00 23 1009.5
20260906202015 105 242 3.0 10.0 0.00 0.00 0.00 24 1009.5
20260906201918 105 258 3.0 10.0 0.00 0.00 0.00 24 1009.6
20260906201828 105 265 1.0 9.0 0.00 0.00 0.00 24 1009.6
20260906201730 104 271 2.0 9.0 0.00 0.00 0.00 24 1009.5
20260906201633 104 271 3.0 9.0 0.00 0.00 0.00 24 1009.5
20260906201517 104 271 4.0 10.0 0.00 0.00 0.00 24 1009.5
20260906201426 104 249 4.0 11.0 0.00 0.00 0.00 24 1009.5
20260906201329 104 243 3.0 11.0 0.00 0.00 0.00 24 1009.5
20260906201230 104 244 2.0 11.0 0.00 0.00 0.00 25 1009.6
20260906201140 103 245 2.0 11.0 0.00 0.00 0.00 25 1009.5
20260906201021 103 245 4.0 11.0 0.00 0.00 0.00 24 1009.7
20260906200929 103 240 4.0 11.0 0.00 0.00 0.00 25 1009.7
20260906200830 103 238 4.0 11.0 0.00 0.00 0.00 24 1009.6
20260906200739 103 233 5.0 11.0 0.00 0.00 0.00 25 1009.7
20260906200622 104 236 6.0 11.0 0.00 0.00 0.00 24 1009.7
20260906200524 104 237 4.0 11.0 0.00 0.00 0.00 24 1009.7
20260906200454 104 234 2.0 9.0 0.00 0.00 0.00 24 1009.7
20260906200318 104 233 3.0 9.0 0.00 0.00 0.00 24 1009.7
20260906200247 104 233 3.0 9.0 0.00 0.00 0.00 24 1009.8
20260906200129 104 231 4.0 9.0 0.00 0.00 0.00 24 1009.8
20260906200041 104 230 4.0 9.0 0.00 0.00 0.00 24 1009.8
20260906195940 104 230 3.0 9.0 0.00 0.00 0.00 25 1009.8
20260906195822 104 243 3.0 7.0 0.00 0.00 0.00 24 1009.7
20260906195729 104 243 4.0 8.0 0.00 0.00 0.00 24 1009.7
20260906195639 104 243 3.0 8.0 0.00 0.00 0.00 24 1009.8
20260906195539 104 243 3.0 8.0 0.00 0.00 0.00 25 1009.8
20260906195429 104 242 4.0 8.0 0.00 0.00 0.00 24 1009.8
20260906195329 104 241 4.0 8.0 0.00 0.00 0.00 24 1009.8
20260906195217 104 236 3.0 8.0 0.00 0.00 0.00 24 1009.8
20260906195138 104 233 2.0 8.0 0.00 0.00 0.00 25 1009.9
20260906195026 104 233 3.0 8.0 0.00 0.00 0.00 25 1009.9
20260906194933 104 233 4.0 8.0 0.00 0.00 0.00 24 1009.9
20260906194903 104 233 4.0 8.0 0.00 0.00 0.00 24 1009.9
20260906194724 104 233 3.0 8.0 0.00 0.00 0.00 25 1009.9
20260906194648 104 233 3.0 8.0 0.00 0.00 0.00 25 1009.9
20260906194428 104 231 4.0 8.0 0.00 0.00 0.00 24 1009.9
20260906194337 104 231 3.0 8.0 0.00 0.00 0.00 24 1009.8
20260906194224 104 232 2.0 8.0 0.00 0.00 0.00 24 1009.9
20260906194125 104 234 2.0 8.0 0.00 0.00 0.00 24 1009.9
20260906194037 104 237 2.0 8.0 0.00 0.00 0.00 25 1009.9
20260906193919 104 238 2.0 8.0 0.00 0.00 0.00 25 1009.9
20260906193820 104 238 3.0 8.0 0.00 0.00 0.00 24 1009.9
20260906193722 104 237 3.0 8.0 0.00 0.00 0.00 24 1009.9
20260906193637 104 236 2.0 8.0 0.00 0.00 0.00 24 1009.9
20260906193519 103 236 3.0 8.0 0.00 0.00 0.00 25 1009.9
20260906193420 103 236 4.0 8.0 0.00 0.00 0.00 25 1010.0
20260906193330 103 237 4.0 8.0 0.00 0.00 0.00 25 1010.0
20260906193232 103 237 4.0 8.0 0.00 0.00 0.00 25 1009.9
20260906193134 103 233 4.0 8.0 0.00 0.00 0.00 25 1009.9
20260906193019 103 233 4.0 9.0 0.00 0.00 0.00 24 1009.9
20260906192930 103 233 4.0 9.0 0.00 0.00 0.00 24 1009.9
20260906192832 103 231 5.0 9.0 0.00 0.00 0.00 25 1009.9
20260906192620 103 229 4.0 9.0 0.00 0.00 0.00 24 1010.0
20260906192529 103 228 3.0 9.0 0.00 0.00 0.00 24 1010.0
20260906192415 104 227 2.0 9.0 0.00 0.00 0.00 24 1010.1
20260906192338 104 227 3.0 9.0 0.00 0.00 0.00 24 1010.1
20260906192226 103 227 4.0 9.0 0.00 0.00 0.00 24 1010.2
20260906192129 103 227 4.0 9.0 0.00 0.00 0.00 24 1010.2
20260906192030 103 252 3.0 8.0 0.00 0.00 0.00 24 1010.2
20260906191939 103 270 2.0 8.0 0.00 0.00 0.00 24 1010.1
20260906191821 103 271 2.0 8.0 0.00 0.00 0.00 24 1010.2
20260906191726 103 271 3.0 8.0 0.00 0.00 0.00 24 1010.1
20260906191636 104 272 4.0 8.0 0.00 0.00 0.00 25 1010.1
20260906191519 104 273 3.0 8.0 0.00 0.00 0.00 24 1010.2
20260906191439 104 271 2.0 8.0 0.00 0.00 0.00 25 1010.1
20260906191325 104 269 3.0 8.0 0.00 0.00 0.00 25 1010.1
20260906191228 104 271 3.0 8.0 0.00 0.00 0.00 25 1010.1
20260906191140 104 273 3.0 6.0 0.00 0.00 0.00 24 1010.2
20260906191023 104 273 2.0 6.0 0.00 0.00 0.00 25 1010.2
20260906190925 104 274 1.0 6.0 0.00 0.00 0.00 25 1010.3
20260906190827 104 274 2.0 6.0 0.00 0.00 0.00 25 1010.3
20260906190737 104 274 1.0 6.0 0.00 0.00 0.00 24 1010.3
20260906190620 104 274 0.0 8.0 0.00 0.00 0.00 26 1010.4
20260906190526 103 274 1.0 8.0 0.00 0.00 0.00 27 1010.4
20260906190429 103 274 1.0 8.0 0.00 0.00 0.00 26 1010.4
20260906190338 102 274 1.0 8.0 0.00 0.00 0.00 25 1010.4
20260906190219 102 274 1.0 8.0 0.00 0.00 0.00 25 1010.4
20260906190142 102 274 2.0 8.0 0.00 0.00 0.00 25 1010.4
20260906185916 103 272 3.0 8.0 0.00 0.00 0.00 25 1010.5
20260906185845 102 272 3.0 8.0 0.00 0.00 0.00 25 1010.6
20260906185726 102 267 3.0 8.0 0.00 0.00 0.00 25 1010.5
20260906185636 102 267 2.0 8.0 0.00 0.00 0.00 26 1010.5
20260906185539 102 266 2.0 8.0 0.00 0.00 0.00 25 1010.6
20260906185426 102 262 1.0 8.0 0.00 0.00 0.00 25 1010.6
20260906185347 102 262 2.0 8.0 0.00 0.00 0.00 25 1010.7
20260906185235 102 262 2.0 8.0 0.00 0.00 0.00 25 1010.7
20260906185122 102 262 4.0 8.0 0.00 0.00 0.00 26 1010.8
20260906185023 102 262 4.0 8.0 0.00 0.00 0.00 26 1010.9
20260906184934 102 261 3.0 8.0 0.00 0.00 0.00 25 1010.9
20260906184835 102 260 3.0 6.0 0.00 0.00 0.00 26 1010.7
20260906184738 102 259 3.0 7.0 0.00 0.00 0.00 26 1010.7
20260906184644 102 262 2.0 7.0 0.00 0.00 0.00 25 1010.9
20260906184529 102 262 3.0 7.0 0.00 0.00 0.00 25 1010.9
20260906184431 103 262 2.0 7.0 0.00 0.00 0.00 25 1010.9
20260906184341 102 262 1.0 7.0 0.00 0.00 0.00 27 1010.8
20260906184222 102 262 0.0 7.0 0.00 0.00 0.00 26 1010.8
20260906184123 102 262 1.0 7.0 0.00 0.00 0.00 26 1011.0
20260906184034 102 262 3.0 7.0 0.00 0.00 0.00 26 1011.0
20260906183937 102 261 4.0 7.0 0.00 0.00 0.00 26 1011.0
20260906183821 102 261 4.0 7.0 0.00 0.00 0.00 26 1011.0
20260906183732 102 262 4.0 7.0 0.00 0.00 0.00 26 1011.0
20260906183654 102 261 3.0 8.0 0.00 0.00 0.00 27 1011.0
20260906183515 102 260 1.0 8.0 0.00 0.00 0.00 27 1011.0
20260906183445 102 260 2.0 8.0 0.00 0.00 0.00 27 1011.1
20260906183325 101 260 2.0 8.0 0.00 0.00 0.00 26 1011.1
20260906183217 101 260 3.0 8.0 0.00 0.00 0.00 26 1011.0
20260906183117 101 261 2.0 8.0 0.00 0.00 0.00 27 1011.1
20260906183026 102 268 2.0 8.0 0.00 0.00 0.00 27 1011.1
20260906182928 102 268 3.0 8.0 0.00 0.00 0.00 26 1011.1
20260906182858 102 268 3.0 8.0 0.00 0.00 0.00 26 1011.1
20260906182718 102 266 2.0 8.0 0.00 0.00 0.00 27 1011.1
20260906182620 102 266 2.0 8.0 0.00 0.00 0.00 27 1011.2
20260906182546 101 266 3.0 8.0 0.00 0.00 0.00 27 1011.2
20260906182433 101 264 3.0 8.0 0.00 0.00 0.00 27 1011.2
20260906182402 101 264 3.0 8.0 0.00 0.00 0.00 28 1011.2
20260906182223 101 262 2.0 8.0 0.00 0.00 0.00 27 1011.2
20260906182126 101 262 1.0 8.0 0.00 0.00 0.00 27 1011.2
20260906182028 101 262 1.0 8.0 0.00 0.00 0.00 28 1011.2
20260906181915 100 262 2.0 8.0 0.00 0.00 0.00 28 1011.2
20260906181822 100 262 2.0 8.0 0.00 0.00 0.00 27 1011.2
20260906181722 100 253 2.0 8.0 0.00 0.00 0.00 27 1011.3
20260906181632 100 253 2.0 8.0 0.00 0.00 0.00 28 1011.3
20260906181540 100 253 3.0 8.0 0.00 0.00 0.00 28 1011.3
20260906181442 100 247 2.0 7.0 0.00 0.00 0.00 28 1011.3
20260906181322 100 248 2.0 7.0 0.00 0.00 0.00 28 1011.3
20260906181233 100 248 3.0 7.0 0.00 0.00 0.00 27 1011.3
20260906181118 99 248 3.0 7.0 0.00 0.00 0.00 28 1011.3
20260906181018 99 250 3.0 7.0 0.00 0.00 0.00 28 1011.3
20260906180926 99 250 3.0 7.0 0.00 0.00 0.00 28 1011.3
20260906180828 99 250 3.0 8.0 0.00 0.00 0.00 28 1011.3
20260906180729 99 250 3.0 9.0 0.00 0.00 0.00 27 1011.3
20260906180639 100 250 2.0 9.0 0.00 0.00 0.00 27 1011.3
20260906180525 100 250 2.0 9.0 0.00 0.00 0.00 27 1011.2
20260906180426 100 255 3.0 9.0 0.00 0.00 0.00 27 1011.3
20260906180328 100 256 3.0 9.0 0.00 0.00 0.00 27 1011.3
20260906180236 99 256 4.0 10.0 0.00 0.00 0.00 28 1011.2
20260906180117 99 256 5.0 10.0 0.00 0.00 0.00 28 1011.2
20260906180038 99 256 4.0 10.0 0.00 0.00 0.00 28 1011.2
20260906175928 99 252 2.0 10.0 0.00 0.00 0.00 28 1011.2
20260906175841 99 252 2.0 10.0 0.00 0.00 0.00 27 1011.2
20260906175723 99 252 2.0 10.0 0.00 0.00 0.00 28 1011.3
20260906175644 99 252 3.0 10.0 0.00 0.00 0.00 28 1011.4
20260906175533 99 252 4.0 10.0 0.00 0.00 0.00 28 1011.4
20260906175414 99 248 3.0 7.0 0.00 0.00 0.00 28 1011.3
20260906175336 99 248 3.0 7.0 0.00 0.00 0.00 28 1011.3
20260906175244 99 248 3.0 7.0 0.00 0.00 0.00 28 1011.4
20260906175130 99 248 1.0 5.0 0.00 0.00 0.00 28 1011.4
20260906175032 98 247 2.0 5.0 0.00 0.00 0.00 28 1011.3
20260906174941 98 247 2.0 5.0 0.00 0.00 0.00 28 1011.4
20260906174824 98 247 2.0 5.0 0.00 0.00 0.00 29 1011.4
20260906174726 98 247 1.0 6.0 0.00 0.00 0.00 28 1011.3
20260906174629 98 243 1.0 6.0 0.00 0.00 0.00 28 1011.3
20260906174524 99 243 1.0 7.0 0.00 0.00 0.00 28 1011.4
20260906174424 98 243 1.0 7.0 0.00 0.00 0.00 29 1011.4
20260906174354 98 241 1.0 7.0 0.00 0.00 0.00 28 1011.4
20260906174234 98 241 1.0 7.0 0.00 0.00 0.00 29 1011.5
20260906174117 98 241 1.0 7.0 0.00 0.00 0.00 29 1011.6
20260906174019 98 240 2.0 7.0 0.00 0.00 0.00 29 1011.6
20260906173933 98 240 3.0 7.0 0.00 0.00 0.00 29 1011.6
20260906173835 98 240 3.0 7.0 0.00 0.00 0.00 29 1011.6
20260906173717 98 245 1.0 6.0 0.00 0.00 0.00 29 1011.6
20260906173619 98 245 1.0 6.0 0.00 0.00 0.00 29 1011.6
20260906173529 98 245 2.0 6.0 0.00 0.00 0.00 29 1011.6
20260906173415 98 245 3.0 6.0 0.00 0.00 0.00 29 1011.7
20260906173337 98 246 3.0 5.0 0.00 0.00 0.00 28 1011.6
20260906173226 99 247 3.0 5.0 0.00 0.00 0.00 28 1011.6
20260906173129 99 248 2.0 5.0 0.00 0.00 0.00 28 1011.6
20260906173035 99 248 1.0 5.0 0.00 0.00 0.00 29 1011.6
20260906172918 98 248 1.0 5.0 0.00 0.00 0.00 30 1011.6
20260906172819 98 246 1.0 5.0 0.00 0.00 0.00 30 1011.5
20260906172736 97 246 1.0 5.0 0.00 0.00 0.00 30 1011.5
20260906172618 97 243 2.0 5.0 0.00 0.00 0.00 30 1011.6
20260906172518 97 243 1.0 5.0 0.00 0.00 0.00 30 1011.6
20260906172426 97 244 2.0 5.0 0.00 0.00 0.00 30 1011.6
20260906172329 97 245 2.0 6.0 0.00 0.00 0.00 29 1011.6
20260906172230 98 244 2.0 6.0 0.00 0.00 0.00 29 1011.6
20260906172118 97 245 2.0 6.0 0.00 0.00 0.00 30 1011.7
20260906172024 97 245 1.0 6.0 0.00 0.00 0.00 30 1011.7
20260906171925 97 245 1.0 6.0 0.00 0.00 0.00 30 1011.8
20260906171834 97 245 1.0 6.0 0.00 0.00 0.00 30 1011.8
20260906171717 97 245 2.0 6.0 0.00 0.00 0.00 29 1011.7
20260906171619 97 245 4.0 6.0 0.00 0.00 0.00 29 1011.8
20260906171521 97 245 4.0 6.0 0.00 0.00 0.00 29 1011.9
20260906171436 97 245 3.0 6.0 0.00 0.00 0.00 30 1011.9
20260906171318 97 245 2.0 4.0 0.00 0.00 0.00 30 1011.8
20260906171220 98 245 1.0 4.0 0.00 0.00 0.00 30 1011.9
20260906171129 97 245 1.0 4.0 0.00 0.00 0.00 30 1011.9
20260906171051 97 245 1.0 4.0 0.00 0.00 0.00 30 1011.8
20260906170939 98 245 1.0 4.0 0.00 0.00 0.00 30 1012.0
20260906170826 97 245 0.0 6.0 0.00 0.00 0.00 31 1011.9
20260906170729 97 245 1.0 6.0 0.00 0.00 0.00 32 1011.9
20260906170657 96 245 1.0 6.0 0.00 0.00 0.00 31 1011.9
20260906170539 96 245 1.0 6.0 0.00 0.00 0.00 31 1011.9
20260906170426 96 245 1.0 6.0 0.00 0.00 0.00 30 1011.9
20260906170328 96 245 2.0 6.0 0.00 0.00 0.00 31 1011.9
20260906170257 96 245 2.0 6.0 0.00 0.00 0.00 30 1012.0
20260906170121 96 245 2.0 6.0 0.00 0.00 0.00 31 1012.0
20260906170037 96 245 1.0 6.0 0.00 0.00 0.00 30 1012.0
20260906165934 96 247 1.0 5.0 0.00 0.00 0.00 31 1011.9
20260906165855 96 247 2.0 5.0 0.00 0.00 0.00 31 1011.9
20260906165743 96 247 3.0 5.0 0.00 0.00 0.00 31 1011.9
20260906165623 95 247 2.0 5.0 0.00 0.00 0.00 32 1011.9
20260906165554 95 248 2.0 5.0 0.00 0.00 0.00 31 1011.9
20260906165418 95 248 2.0 5.0 0.00 0.00 0.00 31 1011.9
20260906165340 95 248 2.0 5.0 0.00 0.00 0.00 32 1011.9
20260906165249 95 248 1.0 5.0 0.00 0.00 0.00 33 1011.9
20260906165128 94 255 2.0 5.0 0.00 0.00 0.00 32 1011.9
20260906165037 94 255 2.0 5.0 0.00 0.00 0.00 32 1011.9
20260906164919 94 255 2.0 5.0 0.00 0.00 0.00 32 1011.9
20260906164821 94 255 2.0 5.0 0.00 0.00 0.00 32 1011.9
20260906164751 95 255 2.0 4.0 0.00 0.00 0.00 32 1011.9
20260906164616 95 255 2.0 4.0 0.00 0.00 0.00 32 1011.9
20260906164518 95 255 1.0 4.0 0.00 0.00 0.00 32 1011.9
20260906164450 95 255 1.0 5.0 0.00 0.00 0.00 32 1011.9
20260906164336 95 255 1.0 5.0 0.00 0.00 0.00 33 1011.9
20260906164237 94 255 2.0 5.0 0.00 0.00 0.00 33 1011.9
20260906164118 94 255 1.0 5.0 0.00 0.00 0.00 33 1011.9
20260906164028 94 255 1.0 5.0 0.00 0.00 0.00 32 1011.9
20260906163934 94 255 1.0 5.0 0.00 0.00 0.00 32 1011.9
20260906163836 94 255 2.0 5.0 0.00 0.00 0.00 33 1011.9
20260906163725 94 255 3.0 6.0 0.00 0.00 0.00 33 1011.8
20260906163627 94 255 3.0 6.0 0.00 0.00 0.00 33 1011.8
20260906163530 94 255 2.0 6.0 0.00 0.00 0.00 33 1011.8
20260906163439 94 255 1.0 6.0 0.00 0.00 0.00 33 1011.7
20260906163325 94 255 1.0 6.0 0.00 0.00 0.00 34 1011.7
20260906163226 94 255 2.0 6.0 0.00 0.00 0.00 34 1011.7
20260906163129 94 255 2.0 6.0 0.00 0.00 0.00 34 1011.7
20260906163039 93 255 3.0 6.0 0.00 0.00 0.00 34 1011.7
20260906162920 93 255 3.0 6.0 0.00 0.00 0.00 35 1011.8
20260906162820 93 255 1.0 6.0 0.00 0.00 0.00 35 1011.7
20260906162727 93 255 1.0 5.0 0.00 0.00 0.00 34 1011.7
20260906162636 93 255 2.0 5.0 0.00 0.00 0.00 34 1011.8
20260906162537 93 255 2.0 5.0 0.00 0.00 0.00 34 1011.7
20260906162424 93 255 2.0 5.0 0.00 0.00 0.00 34 1011.7
20260906162326 93 255 3.0 5.0 0.00 0.00 0.00 34 1011.7
20260906162229 93 255 2.0 5.0 0.00 0.00 0.00 34 1011.7
20260906162140 93 255 1.0 5.0 0.00 0.00 0.00 34 1011.7
20260906162043 93 255 1.0 4.0 0.00 0.00 0.00 33 1011.8
20260906161923 93 255 1.0 4.0 0.00 0.00 0.00 34 1011.8
20260906161833 93 255 1.0 4.0 0.00 0.00 0.00 34 1011.8
20260906161735 92 255 1.0 4.0 0.00 0.00 0.00 34 1011.9
20260906161616 92 255 2.0 4.0 0.00 0.00 0.00 35 1011.9
20260906161545 92 255 2.0 4.0 0.00 0.00 0.00 34 1011.9
20260906161430 92 255 1.0 4.0 0.00 0.00 0.00 34 1011.9
20260906161339 92 255 1.0 4.0 0.00 0.00 0.00 33 1011.9
20260906161221 93 255 2.0 4.0 0.00 0.00 0.00 34 1011.9
20260906161123 93 255 2.0 4.0 0.00 0.00 0.00 34 1011.9
20260906161023 93 255 2.0 4.0 0.00 0.00 0.00 34 1012.0
20260906160933 93 255 2.0 4.0 0.00 0.00 0.00 35 1012.0
20260906160819 93 255 1.0 4.0 0.00 0.00 0.00 35 1011.9
20260906160721 93 255 0.0 3.0 0.00 0.00 0.00 36 1012.0
20260906160651 93 255 0.0 4.0 0.00 0.00 0.00 35 1012.0
20260906160538 93 255 0.0 4.0 0.00 0.00 0.00 35 1011.9
20260906160421 92 255 0.0 4.0 0.00 0.00 0.00 36 1011.9
20260906160343 92 255 1.0 5.0 0.00 0.00 0.00 36 1012.0
20260906160252 92 255 1.0 5.0 0.00 0.00 0.00 36 1012.0
20260906160117 92 255 2.0 5.0 0.00 0.00 0.00 35 1012.0
20260906160029 92 255 2.0 5.0 0.00 0.00 0.00 35 1012.0
20260906155946 92 255 1.0 5.0 0.00 0.00 0.00 36 1012.0
20260906155833 92 255 1.0 5.0 0.00 0.00 0.00 36 1012.0
20260906155735 92 255 0.0 5.0 0.00 0.00 0.00 36 1012.0
20260906155617 92 255 2.0 5.0 0.00 0.00 0.00 36 1012.0
20260906155527 92 255 2.0 5.0 0.00 0.00 0.00 36 1012.0
20260906155433 92 255 1.0 5.0 0.00 0.00 0.00 36 1011.9
20260906155334 92 255 0.0 2.0 0.00 0.00 0.00 37 1012.0
20260906155216 92 255 0.0 3.0 0.00 0.00 0.00 37 1012.0
20260906155146 92 255 0.0 3.0 0.00 0.00 0.00 37 1012.0
20260906154928 92 255 1.0 4.0 0.00 0.00 0.00 37 1012.1
20260906154830 92 255 0.0 4.0 0.00 0.00 0.00 36 1012.0
20260906154715 91 255 1.0 4.0 0.00 0.00 0.00 37 1012.0
20260906154625 91 255 1.0 5.0 0.00 0.00 0.00 37 1012.0
20260906154527 91 255 1.0 6.0 0.00 0.00 0.00 37 1012.0
20260906154430 91 255 1.0 6.0 0.00 0.00 0.00 38 1011.9
20260906154339 91 255 1.0 6.0 0.00 0.00 0.00 38 1011.9
20260906154220 91 255 2.0 6.0 0.00 0.00 0.00 37 1011.9
20260906154128 91 255 2.0 6.0 0.00 0.00 0.00 37 1011.9
20260906154029 91 255 2.0 6.0 0.00 0.00 0.00 38 1012.0
20260906153939 91 255 2.0 6.0 0.00 0.00 0.00 38 1011.9
20260906153822 91 255 2.0 6.0 0.00 0.00 0.00 38 1011.9
20260906153724 91 254 2.0 6.0 0.00 0.00 0.00 38 1011.8
20260906153628 91 253 1.0 4.0 0.00 0.00 0.00 38 1011.8
20260906153541 91 253 1.0 4.0 0.00 0.00 0.00 38 1011.9
20260906153450 91 252 2.0 5.0 0.00 0.00 0.00 39 1011.9
20260906153329 91 252 1.0 5.0 0.00 0.00 0.00 38 1011.9
20260906153232 91 252 1.0 5.0 0.00 0.00 0.00 39 1011.9
20260906153115 91 252 1.0 5.0 0.00 0.00 0.00 39 1012.0
20260906153025 91 252 1.0 5.0 0.00 0.00 0.00 39 1012.0
20260906152932 91 252 1.0 5.0 0.00 0.00 0.00 39 1012.0
20260906152837 90 251 1.0 5.0 0.00 0.00 0.00 38 1012.0
20260906152719 90 248 1.0 5.0 0.00 0.00 0.00 40 1012.1
20260906152641 90 248 1.0 5.0 0.00 0.00 0.00 39 1012.0
20260906152530 90 248 1.0 4.0 0.00 0.00 0.00 39 1012.0
20260906152433 90 246 2.0 4.0 0.00 0.00 0.00 40 1012.0
20260906152316 90 283 1.0 4.0 0.00 0.00 0.00 40 1012.0
20260906152223 90 283 1.0 4.0 0.00 0.00 0.00 39 1011.9
20260906152133 90 283 1.0 4.0 0.00 0.00 0.00 40 1011.9
20260906152033 90 283 1.0 3.0 0.00 0.00 0.00 41 1012.0
20260906151920 90 283 1.0 3.0 0.00 0.00 0.00 40 1012.0
20260906151822 90 283 1.0 3.0 0.00 0.00 0.00 40 1012.0
20260906151724 89 283 0.0 3.0 0.00 0.00 0.00 40 1011.9
20260906151633 89 283 0.0 3.0 0.00 0.00 0.00 40 1011.9
20260906151517 89 283 0.0 3.0 0.00 0.00 0.00 41 1012.0
20260906151425 89 283 1.0 3.0 0.00 0.00 0.00 41 1011.9
20260906151327 89 283 1.0 3.0 0.00 0.00 0.00 40 1011.9
20260906151228 89 283 1.0 3.0 0.00 0.00 0.00 41 1011.9
20260906151156 89 283 0.0 3.0 0.00 0.00 0.00 41 1012.0
20260906151018 89 283 1.0 3.0 0.00 0.00 0.00 42 1011.8
20260906150923 89 283 1.0 3.0 0.00 0.00 0.00 41 1011.8
20260906150853 89 283 1.0 4.0 0.00 0.00 0.00 41 1011.8
20260906150734 89 283 1.0 4.0 0.00 0.00 0.00 41 1011.8
20260906150615 89 283 1.0 4.0 0.00 0.00 0.00 42 1011.8
20260906150525 89 283 1.0 4.0 0.00 0.00 0.00 42 1011.7
20260906150428 89 283 1.0 4.0 0.00 0.00 0.00 42 1011.7
20260906150328 88 283 1.0 4.0 0.00 0.00 0.00 42 1011.7
20260906150240 88 283 1.0 4.0 0.00 0.00 0.00 42 1011.8
20260906150120 88 283 1.0 4.0 0.00 0.00 0.00 43 1011.8
20260906150042 88 283 1.0 4.0 0.00 0.00 0.00 43 1011.8
20260906145931 88 283 0.0 2.0 0.00 0.00 0.00 42 1011.8
20260906145840 88 283 0.0 2.0 0.00 0.00 0.00 43 1011.8
20260906145742 88 283 1.0 2.0 0.00 0.00 0.00 43 1011.8
20260906145623 88 283 1.0 3.0 0.00 0.00 0.00 43 1011.8
20260906145536 88 283 1.0 3.0 0.00 0.00 0.00 44 1011.8
20260906145419 88 283 1.0 3.0 0.00 0.00 0.00 44 1011.8
20260906145321 88 283 1.0 3.0 0.00 0.00 0.00 44 1011.8
20260906145252 88 283 0.0 3.0 0.00 0.00 0.00 43 1011.8
20260906145133 87 283 0.0 3.0 0.00 0.00 0.00 43 1011.7
20260906145034 87 283 0.0 3.0 0.00 0.00 0.00 44 1011.7
20260906144927 87 282 1.0 3.0 0.00 0.00 0.00 43 1011.8
20260906144829 87 283 2.0 3.0 0.00 0.00 0.00 44 1011.7
20260906144737 87 282 1.0 3.0 0.00 0.00 0.00 45 1011.7
20260906144618 87 283 0.0 2.0 0.00 0.00 0.00 44 1011.7
20260906144521 87 282 0.0 2.0 0.00 0.00 0.00 44 1011.7
20260906144423 87 282 0.0 2.0 0.00 0.00 0.00 44 1011.8
20260906144337 87 282 0.0 2.0 0.00 0.00 0.00 44 1011.8
20260906144217 87 282 1.0 2.0 0.00 0.00 0.00 46 1011.6
20260906144119 87 282 1.0 2.0 0.00 0.00 0.00 45 1011.6
20260906144021 87 282 0.0 2.0 0.00 0.00 0.00 45 1011.7
20260906143931 87 282 0.0 2.0 0.00 0.00 0.00 45 1011.7
20260906143833 86 282 0.0 2.0 0.00 0.00 0.00 44 1011.6
20260906143719 86 282 0.0 2.0 0.00 0.00 0.00 44 1011.6
20260906143621 86 282 0.0 2.0 0.00 0.00 0.00 45 1011.6
20260906143552 86 282 0.0 2.0 0.00 0.00 0.00 45 1011.6
20260906143433 86 282 1.0 2.0 0.00 0.00 0.00 45 1011.5
20260906143342 86 282 0.0 1.0 0.00 0.00 0.00 44 1011.4
20260906143225 86 282 0.0 1.0 0.00 0.00 0.00 44 1011.4
20260906143126 86 282 0.0 0.0 0.00 0.00 0.00 44 1011.4
20260906143040 86 282 0.0 0.0 0.00 0.00 0.00 44 1011.4
20260906142922 86 282 0.0 1.0 0.00 0.00 0.00 44 1011.3
20260906142824 86 282 0.0 1.0 0.00 0.00 0.00 44 1011.4
20260906142733 86 282 0.0 1.0 0.00 0.00 0.00 44 1011.4
20260906142634 86 282 0.0 1.0 0.00 0.00 0.00 44 1011.4
20260906142515 86 282 0.0 1.0 0.00 0.00 0.00 44 1011.4
20260906142430 86 282 0.0 1.0 0.00 0.00 0.00 44 1011.4
20260906142332 86 282 0.0 1.0 0.00 0.00 0.00 44 1011.3
20260906142234 86 282 0.0 1.0 0.00 0.00 0.00 44 1011.3
20260906142144 86 282 0.0 1.0 0.00 0.00 0.00 44 1011.3
20260906142024 86 282 0.0 2.0 0.00 0.00 0.00 45 1011.4
20260906141934 86 282 0.0 2.0 0.00 0.00 0.00 45 1011.4
20260906141820 86 282 0.0 2.0 0.00 0.00 0.00 45 1011.3
20260906141723 85 282 0.0 2.0 0.00 0.00 0.00 45 1011.3
20260906141625 85 282 0.0 2.0 0.00 0.00 0.00 45 1011.3
20260906141555 85 282 0.0 2.0 0.00 0.00 0.00 45 1011.3
20260906141434 85 282 0.0 2.0 0.00 0.00 0.00 45 1011.3
20260906141343 85 282 0.0 2.0 0.00 0.00 0.00 45 1011.3
20260906141225 85 282 0.0 2.0 0.00 0.00 0.00 45 1011.3
20260906141137 85 321 0.0 2.0 0.00 0.00 0.00 45 1011.3
20260906141018 85 321 0.0 2.0 0.00 0.00 0.00 45 1011.3
20260906140946 85 322 0.0 2.0 0.00 0.00 0.00 45 1011.3
20260906140829 85 319 0.0 2.0 0.00 0.00 0.00 45 1011.3
20260906140729 85 319 0.0 2.0 0.00 0.00 0.00 45 1011.3
20260906140639 85 319 0.0 2.0 0.00 0.00 0.00 45 1011.2
20260906140521 85 319 0.0 2.0 0.00 0.00 0.00 45 1011.2
20260906140428 85 319 0.0 0.0 0.00 0.00 0.00 45 1011.2
20260906140336 85 305 0.0 0.0 0.00 0.00 0.00 46 1011.3
20260906140217 84 305 0.0 0.0 0.00 0.00 0.00 46 1011.2
20260906140119 84 305 0.0 0.0 0.00 0.00 0.00 46 1011.2
20260906140101 84 305 0.0 0.0 0.00 0.00 0.00 46 1011.2
20260906135958 84 305 0.0 2.0 0.00 0.00 0.00 46 1011.2
20260906135820 84 305 0.0 2.0 0.00 0.00 0.00 46 1011.1
20260906135726 84 305 0.0 3.0 0.00 0.00 0.00 46 1011.1
20260906135655 84 305 0.0 3.0 0.00 0.00 0.00 46 1011.1
20260906135517 84 305 0.0 3.0 0.00 0.00 0.00 46 1011.0
20260906135417 84 305 0.0 3.0 0.00 0.00 0.00 46 1011.1
20260906135325 84 305 0.0 3.0 0.00 0.00 0.00 46 1011.0
20260906135248 84 305 0.0 3.0 0.00 0.00 0.00 46 1011.0
20260906135136 84 305 0.0 3.0 0.00 0.00 0.00 46 1011.1
20260906135022 84 305 1.0 3.0 0.00 0.00 0.00 46 1011.0
20260906134924 84 305 1.0 3.0 0.00 0.00 0.00 46 1011.1
20260906134827 84 305 0.0 3.0 0.00 0.00 0.00 46 1011.1
20260906134756 84 305 0.0 4.0 0.00 0.00 0.00 46 1011.0
20260906134617 84 305 0.0 4.0 0.00 0.00 0.00 46 1011.0
20260906134518 84 305 0.0 4.0 0.00 0.00 0.00 46 1011.0
20260906134447 84 305 0.0 4.0 0.00 0.00 0.00 46 1011.0
20260906134338 84 305 0.0 4.0 0.00 0.00 0.00 46 1011.0
20260906134219 84 305 0.0 4.0 0.00 0.00 0.00 46 1010.9
20260906134120 83 305 1.0 4.0 0.00 0.00 0.00 46 1011.0
20260906134050 83 305 1.0 4.0 0.00 0.00 0.00 46 1011.0
20260906133958 83 305 1.0 4.0 0.00 0.00 0.00 46 1010.9
20260906133820 83 305 0.0 0.0 0.00 0.00 0.00 47 1010.9
20260906133742 83 305 0.0 2.0 0.00 0.00 0.00 46 1010.9
20260906133635 83 305 0.0 3.0 0.00 0.00 0.00 46 1010.9
20260906133517 83 305 0.0 3.0 0.00 0.00 0.00 46 1010.8
20260906133418 83 305 0.0 3.0 0.00 0.00 0.00 46 1010.8
20260906133328 83 305 0.0 3.0 0.00 0.00 0.00 46 1010.8
20260906133229 83 305 0.0 3.0 0.00 0.00 0.00 46 1010.8
20260906133132 83 305 0.0 3.0 0.00 0.00 0.00 46 1010.7
20260906133024 83 305 0.0 3.0 0.00 0.00 0.00 46 1010.7
20260906132925 83 305 1.0 3.0 0.00 0.00 0.00 46 1010.8
20260906132834 83 305 1.0 3.0 0.00 0.00 0.00 46 1010.8
20260906132717 83 305 1.0 2.0 0.00 0.00 0.00 46 1010.8
20260906132619 83 305 0.0 2.0 0.00 0.00 0.00 46 1010.8
20260906132521 83 304 1.0 2.0 0.00 0.00 0.00 46 1010.8
20260906132431 83 304 1.0 2.0 0.00 0.00 0.00 46 1010.8
20260906132317 83 304 0.0 2.0 0.00 0.00 0.00 46 1010.8
20260906132219 83 304 0.0 2.0 0.00 0.00 0.00 46 1010.8
20260906132146 83 304 0.0 2.0 0.00 0.00 0.00 46 1010.8
20260906132028 83 304 0.0 2.0 0.00 0.00 0.00 46 1010.8
20260906131930 83 304 0.0 2.0 0.00 0.00 0.00 46 1010.8
20260906131839 83 304 0.0 2.0 0.00 0.00 0.00 46 1010.8
20260906131724 83 304 0.0 2.0 0.00 0.00 0.00 46 1010.8
20260906131625 83 304 0.0 2.0 0.00 0.00 0.00 46 1010.8
20260906131534 83 304 1.0 2.0 0.00 0.00 0.00 47 1010.8
20260906131417 83 304 1.0 2.0 0.00 0.00 0.00 47 1010.7
20260906131339 83 298 1.0 2.0 0.00 0.00 0.00 47 1010.7
20260906131228 83 298 0.0 2.0 0.00 0.00 0.00 47 1010.7
20260906131150 83 298 0.0 2.0 0.00 0.00 0.00 47 1010.7
20260906131041 83 298 0.0 2.0 0.00 0.00 0.00 47 1010.7
20260906130950 83 288 0.0 1.0 0.00 0.00 0.00 47 1010.7
20260906130833 83 288 0.0 1.0 0.00 0.00 0.00 47 1010.7
20260906130735 83 288 0.0 1.0 0.00 0.00 0.00 47 1010.7
20260906130644 83 288 0.0 1.0 0.00 0.00 0.00 47 1010.6
20260906130546 83 288 0.0 1.0 0.00 0.00 0.00 47 1010.7
20260906130433 83 257 0.0 0.0 0.00 0.00 0.00 47 1010.7
20260906130320 83 257 0.0 0.0 0.00 0.00 0.00 47 1010.7
20260906130220 83 257 0.0 0.0 0.00 0.00 0.00 47 1010.6
20260906130130 83 257 0.0 0.0 0.00 0.00 0.00 47 1010.6
20260906130044 83 257 0.0 0.0 0.00 0.00 0.00 47 1010.7
20260906125942 83 257 0.0 0.0 0.00 0.00 0.00 46 1010.7
20260906125824 83 257 0.0 0.0 0.00 0.00 0.00 46 1010.6
20260906125728 83 257 0.0 0.0 0.00 0.00 0.00 46 1010.6
20260906125633 83 257 0.0 0.0 0.00 0.00 0.00 47 1010.6
20260906125515 83 257 0.0 0.0 0.00 0.00 0.00 46 1010.6
20260906125424 83 257 0.0 0.0 0.00 0.00 0.00 46 1010.7
20260906125328 83 257 0.0 0.0 0.00 0.00 0.00 46 1010.7
20260906125230 83 257 0.0 0.0 0.00 0.00 0.00 46 1010.6
20260906125116 83 257 0.0 0.0 0.00 0.00 0.00 46 1010.6
20260906125025 83 257 0.0 0.0 0.00 0.00 0.00 46 1010.6
20260906124928 83 257 0.0 0.0 0.00 0.00 0.00 47 1010.6
20260906124839 83 257 0.0 0.0 0.00 0.00 0.00 47 1010.6
20260906124740 83 257 0.0 0.0 0.00 0.00 0.00 47 1010.5
20260906124622 83 257 0.0 0.0 0.00 0.00 0.00 47 1010.5
20260906124529 83 257 0.0 0.0 0.00 0.00 0.00 47 1010.5
20260906124438 83 257 0.0 0.0 0.00 0.00 0.00 47 1010.5
20260906124319 83 257 0.0 0.0 0.00 0.00 0.00 47 1010.5
20260906124221 83 257 0.0 0.0 0.00 0.00 0.00 47 1010.6
20260906124131 83 257 0.0 0.0 0.00 0.00 0.00 47 1010.6
20260906124033 83 257 0.0 0.0 0.00 0.00 0.00 47 1010.5
20260906123918 83 257 0.0 0.0 0.00 0.00 0.00 47 1010.6
20260906123828 83 257 0.0 0.0 0.00 0.00 0.00 46 1010.6
20260906123749 83 257 0.0 0.0 0.00 0.00 0.00 47 1010.5
20260906123635 83 257 0.0 0.0 0.00 0.00 0.00 47 1010.6
20260906123518 83 257 0.0 0.0 0.00 0.00 0.00 47 1010.5
20260906123439 83 257 0.0 0.0 0.00 0.00 0.00 47 1010.6
20260906123329 83 257 0.0 0.0 0.00 0.00 0.00 47 1010.6
20260906123232 83 257 0.0 0.0 0.00 0.00 0.00 47 1010.6
20260906123132 83 257 0.0 0.0 0.00 0.00 0.00 47 1010.6
20260906123041 83 257 0.0 0.0 0.00 0.00 0.00 47 1010.6
20260906122924 83 257 0.0 0.0 0.00 0.00 0.00 47 1010.6
20260906122853 83 257 0.0 0.0 0.00 0.00 0.00 47 1010.6
20260906122753 83 257 0.0 0.0 0.00 0.00 0.00 47 1010.6
20260906122641 83 257 0.0 0.0 0.00 0.00 0.00 47 1010.5
20260906122522 83 257 0.0 0.0 0.00 0.00 0.00 47 1010.5
20260906122430 83 257 0.0 0.0 0.00 0.00 0.00 47 1010.5
20260906122339 83 257 0.0 0.0 0.00 0.00 0.00 47 1010.5
20260906122220 82 257 0.0 0.0 0.00 0.00 0.00 47 1010.5
20260906122122 82 257 0.0 0.0 0.00 0.00 0.00 47 1010.4
20260906122033 82 257 0.0 0.0 0.00 0.00 0.00 48 1010.4
20260906121935 82 257 0.0 0.0 0.00 0.00 0.00 48 1010.5
20260906121820 82 257 0.0 0.0 0.00 0.00 0.00 48 1010.4
20260906121721 82 257 0.0 0.0 0.00 0.00 0.00 48 1010.4
20260906121632 82 257 0.0 0.0 0.00 0.00 0.00 48 1010.4
20260906121533 82 257 0.0 0.0 0.00 0.00 0.00 48 1010.5
20260906121442 82 257 0.0 0.0 0.00 0.00 0.00 48 1010.4
20260906121324 82 257 0.0 0.0 0.00 0.00 0.00 48 1010.5
20260906121255 82 257 0.0 0.0 0.00 0.00 0.00 48 1010.5
20260906121119 82 257 0.0 0.0 0.00 0.00 0.00 49 1010.6
20260906121041 82 257 0.0 0.0 0.00 0.00 0.00 49 1010.6
20260906120930 82 257 0.0 0.0 0.00 0.00 0.00 48 1010.6
20260906120833 82 257 0.0 0.0 0.00 0.00 0.00 48 1010.6
20260906120735 82 257 0.0 0.0 0.00 0.00 0.00 48 1010.7
20260906120616 82 257 0.0 0.0 0.00 0.00 0.00 49 1010.7
20260906120530 82 257 0.0 0.0 0.00 0.00 0.00 49 1010.7
20260906120433 82 257 0.0 0.0 0.00 0.00 0.00 48 1010.6
20260906120335 82 257 0.0 0.0 0.00 0.00 0.00 49 1010.6
20260906120217 82 257 0.0 0.0 0.00 0.00 0.00 48 1010.5
20260906120127 82 257 0.0 0.0 0.00 0.00 0.00 48 1010.5
20260906120039 82 257 0.0 0.0 0.00 0.00 0.00 48 1010.5
20260906115915 82 257 0.0 0.0 0.00 0.00 0.00 48 1010.6
20260906115824 82 257 0.0 0.0 0.00 0.00 0.00 48 1010.5
20260906115726 82 257 0.0 0.0 0.00 0.00 0.00 48 1010.5
20260906115618 82 257 0.0 0.0 0.00 0.00 0.00 48 1010.5
20260906115528 82 257 0.0 0.0 0.00 0.00 0.00 49 1010.5
20260906115427 83 257 0.0 0.0 0.00 0.00 0.00 48 1010.6
20260906115340 83 257 0.0 0.0 0.00 0.00 0.00 47 1010.5
20260906115221 83 257 0.0 0.0 0.00 0.00 0.00 47 1010.6
20260906115123 83 257 0.0 0.0 0.00 0.00 0.00 47 1010.6
20260906115027 83 257 0.0 0.0 0.00 0.00 0.00 47 1010.6
20260906114935 83 257 0.0 0.0 0.00 0.00 0.00 47 1010.5
20260906114818 83 257 0.0 0.0 0.00 0.00 0.00 47 1010.5
20260906114723 83 257 0.0 0.0 0.00 0.00 0.00 47 1010.5
20260906114653 83 257 0.0 0.0 0.00 0.00 0.00 47 1010.5
20260906114533 83 257 0.0 0.0 0.00 0.00 0.00 47 1010.5
20260906114416 83 257 0.0 0.0 0.00 0.00 0.00 47 1010.5
20260906114317 83 257 0.0 0.0 0.00 0.00 0.00 47 1010.5
20260906114229 83 257 0.0 0.0 0.00 0.00 0.00 48 1010.5
20260906114157 83 257 0.0 0.0 0.00 0.00 0.00 47 1010.5
20260906114042 83 257 0.0 0.0 0.00 0.00 0.00 47 1010.5
20260906113923 83 257 0.0 0.0 0.00 0.00 0.00 47 1010.5
20260906113833 83 257 0.0 0.0 0.00 0.00 0.00 47 1010.5
20260906113733 83 257 0.0 0.0 0.00 0.00 0.00 47 1010.5
20260906113621 83 257 0.0 0.0 0.00 0.00 0.00 47 1010.5
20260906113523 83 257 0.0 0.0 0.00 0.00 0.00 47 1010.6
20260906113426 83 257 0.0 0.0 0.00 0.00 0.00 47 1010.6
20260906113339 83 257 0.0 0.0 0.00 0.00 0.00 46 1010.5
20260906113220 83 257 0.0 0.0 0.00 0.00 0.00 46 1010.5
20260906113150 83 257 0.0 0.0 0.00 0.00 0.00 46 1010.5
20260906113030 84 257 0.0 0.0 0.00 0.00 0.00 46 1010.6
20260906112932 84 257 0.0 0.0 0.00 0.00 0.00 46 1010.7
20260906112842 84 257 0.0 0.0 0.00 0.00 0.00 46 1010.6
20260906112720 84 257 0.0 0.0 0.00 0.00 0.00 46 1010.6
20260906112634 84 257 0.0 0.0 0.00 0.00 0.00 46 1010.6
20260906112517 84 257 0.0 0.0 0.00 0.00 0.00 45 1010.5
20260906112419 84 257 0.0 0.0 0.00 0.00 0.00 45 1010.5
20260906112321 84 257 0.0 0.0 0.00 0.00 0.00 46 1010.5
20260906112232 84 257 0.0 0.0 0.00 0.00 0.00 45 1010.5
20260906112117 84 257 0.0 0.0 0.00 0.00 0.00 45 1010.6
20260906112019 84 257 0.0 0.0 0.00 0.00 0.00 45 1010.5
20260906111928 84 257 0.0 0.0 0.00 0.00 0.00 45 1010.5
20260906111830 84 257 0.0 0.0 0.00 0.00 0.00 45 1010.6
20260906111733 84 257 0.0 0.0 0.00 0.00 0.00 45 1010.6
20260906111642 84 257 0.0 0.0 0.00 0.00 0.00 45 1010.6
20260906111521 85 257 0.0 0.0 0.00 0.00 0.00 45 1010.6
20260906111428 84 257 0.0 0.0 0.00 0.00 0.00 45 1010.6
20260906111337 84 257 0.0 0.0 0.00 0.00 0.00 45 1010.5
20260906111216 84 257 0.0 0.0 0.00 0.00 0.00 45 1010.5
20260906111124 84 257 0.0 0.0 0.00 0.00 0.00 45 1010.5
20260906111027 84 257 0.0 0.0 0.00 0.00 0.00 45 1010.5
20260906110929 84 257 0.0 0.0 0.00 0.00 0.00 45 1010.5
20260906110838 84 257 0.0 0.0 0.00 0.00 0.00 45 1010.5
20260906110724 84 257 0.0 0.0 0.00 0.00 0.00 45 1010.5
20260906110627 84 257 0.0 0.0 0.00 0.00 0.00 45 1010.5
20260906110535 85 257 0.0 0.0 0.00 0.00 0.00 45 1010.4
20260906110418 84 257 0.0 0.0 0.00 0.00 0.00 45 1010.4
20260906110340 85 257 0.0 0.0 0.00 0.00 0.00 45 1010.5
20260906110249 85 257 0.0 0.0 0.00 0.00 0.00 45 1010.5
20260906110157 84 257 0.0 0.0 0.00 0.00 0.00 45 1010.4
20260906110033 85 257 0.0 0.0 0.00 0.00 0.00 45 1010.4
20260906105923 84 257 0.0 0.0 0.00 0.00 0.00 45 1010.4
20260906105833 85 257 0.0 0.0 0.00 0.00 0.00 45 1010.4
20260906105732 84 257 0.0 0.0 0.00 0.00 0.00 45 1010.4
20260906105634 84 257 0.0 0.0 0.00 0.00 0.00 46 1010.4
20260906105516 84 257 0.0 0.0 0.00 0.00 0.00 45 1010.4
20260906105450 84 257 0.0 0.0 0.00 0.00 0.00 45 1010.4
20260906105332 84 257 0.0 0.0 0.00 0.00 0.00 45 1010.4
20260906105240 84 257 0.0 0.0 0.00 0.00 0.00 45 1010.4
20260906105121 84 257 0.0 0.0 0.00 0.00 0.00 45 1010.4
20260906105020 84 257 0.0 0.0 0.00 0.00 0.00 45 1010.4
20260906104930 84 257 0.0 0.0 0.00 0.00 0.00 45 1010.4
20260906104817 84 257 0.0 0.0 0.00 0.00 0.00 45 1010.4
20260906104717 84 257 0.0 0.0 0.00 0.00 0.00 46 1010.3
20260906104627 84 257 0.0 0.0 0.00 0.00 0.00 46 1010.3
20260906104530 84 257 0.0 0.0 0.00 0.00 0.00 45 1010.4
20260906104432 84 257 0.0 0.0 0.00 0.00 0.00 46 1010.4
20260906104341 84 257 0.0 0.0 0.00 0.00 0.00 45 1010.4
20260906104222 84 257 0.0 0.0 0.00 0.00 0.00 45 1010.4
20260906104136 84 257 0.0 0.0 0.00 0.00 0.00 45 1010.4
20260906104018 84 257 0.0 0.0 0.00 0.00 0.00 45 1010.4
20260906103922 84 257 0.0 0.0 0.00 0.00 0.00 45 1010.5
20260906103824 84 257 0.0 0.0 0.00 0.00 0.00 46 1010.5
20260906103733 84 257 0.0 0.0 0.00 0.00 0.00 46 1010.5
20260906103655 84 257 0.0 0.0 0.00 0.00 0.00 46 1010.4
20260906103543 84 257 0.0 0.0 0.00 0.00 0.00 46 1010.6
20260906103429 84 257 0.0 0.0 0.00 0.00 0.00 46 1010.6
20260906103357 84 257 0.0 0.0 0.00 0.00 0.00 46 1010.5
20260906103219 84 257 0.0 0.0 0.00 0.00 0.00 46 1010.5
20260906103120 84 257 0.0 0.0 0.00 0.00 0.00 46 1010.5
20260906103021 84 257 0.0 0.0 0.00 0.00 0.00 46 1010.4
20260906102932 84 257 0.0 0.0 0.00 0.00 0.00 46 1010.4
20260906102817 84 257 0.0 0.0 0.00 0.00 0.00 46 1010.4
20260906102719 84 257 0.0 0.0 0.00 0.00 0.00 45 1010.5
20260906102628 84 257 0.0 0.0 0.00 0.00 0.00 46 1010.5
20260906102529 84 257 0.0 0.0 0.00 0.00 0.00 46 1010.4
20260906102428 84 257 0.0 0.0 0.00 0.00 0.00 46 1010.4
20260906102337 84 257 0.0 0.0 0.00 0.00 0.00 46 1010.5
20260906102223 84 257 0.0 0.0 0.00 0.00 0.00 46 1010.4
20260906102127 84 257 0.0 0.0 0.00 0.00 0.00 46 1010.4
20260906102036 84 257 0.0 0.0 0.00 0.00 0.00 46 1010.4
20260906101919 84 257 0.0 0.0 0.00 0.00 0.00 46 1010.4
20260906101819 84 257 0.0 0.0 0.00 0.00 0.00 46 1010.5
20260906101720 83 257 0.0 0.0 0.00 0.00 0.00 46 1010.5
20260906101634 83 257 0.0 0.0 0.00 0.00 0.00 46 1010.5
20260906101535 83 257 0.0 0.0 0.00 0.00 0.00 47 1010.4
20260906101441 83 257 0.0 0.0 0.00 0.00 0.00 46 1010.5
20260906101323 84 257 0.0 0.0 0.00 0.00 0.00 46 1010.5
20260906101227 84 257 0.0 0.0 0.00 0.00 0.00 46 1010.5
20260906101129 84 257 0.0 0.0 0.00 0.00 0.00 47 1010.5
20260906101038 84 257 0.0 0.0 0.00 0.00 0.00 47 1010.6
20260906100943 84 257 0.0 0.0 0.00 0.00 0.00 47 1010.5
20260906100831 83 257 0.0 0.0 0.00 0.00 0.00 47 1010.5
20260906100733 83 257 0.0 0.0 0.00 0.00 0.00 48 1010.4
20260906100616 83 257 0.0 0.0 0.00 0.00 0.00 49 1010.4
20260906100518 83 257 0.0 0.0 0.00 0.00 0.00 48 1010.4
20260906100428 83 257 0.0 0.0 0.00 0.00 0.00 47 1010.4
20260906100333 84 257 0.0 0.0 0.00 0.00 0.00 46 1010.5
20260906100216 84 257 0.0 0.0 0.00 0.00 0.00 45 1010.5
20260906100118 84 257 0.0 0.0 0.00 0.00 0.00 46 1010.5
20260906100039 84 257 0.0 0.0 0.00 0.00 0.00 45 1010.5
20260906095931 84 257 0.0 0.0 0.00 0.00 0.00 45 1010.5
20260906095840 84 257 0.0 0.0 0.00 0.00 0.00 45 1010.4
20260906095725 84 257 0.0 1.0 0.00 0.00 0.00 45 1010.4
20260906095628 84 257 0.0 1.0 0.00 0.00 0.00 45 1010.4
20260906095537 84 257 0.0 1.0 0.00 0.00 0.00 46 1010.4
20260906095420 84 257 0.0 1.0 0.00 0.00 0.00 45 1010.4
20260906095323 84 257 0.0 1.0 0.00 0.00 0.00 45 1010.4
20260906095224 84 257 0.0 2.0 0.00 0.00 0.00 45 1010.4
20260906095117 84 257 0.0 2.0 0.00 0.00 0.00 45 1010.5
20260906095020 84 257 0.0 2.0 0.00 0.00 0.00 45 1010.5
20260906094922 84 257 0.0 2.0 0.00 0.00 0.00 45 1010.5
20260906094831 84 257 0.0 2.0 0.00 0.00 0.00 45 1010.5
20260906094733 84 257 0.0 2.0 0.00 0.00 0.00 45 1010.4
20260906094616 84 257 1.0 2.0 0.00 0.00 0.00 45 1010.5
20260906094520 84 257 1.0 2.0 0.00 0.00 0.00 45 1010.4
20260906094451 84 257 1.0 2.0 0.00 0.00 0.00 45 1010.4
20260906094329 84 257 0.0 2.0 0.00 0.00 0.00 45 1010.4
20260906094238 84 257 0.0 2.0 0.00 0.00 0.00 45 1010.4
20260906094120 84 257 1.0 2.0 0.00 0.00 0.00 45 1010.4
20260906094023 84 257 1.0 2.0 0.00 0.00 0.00 45 1010.4
20260906093930 84 257 0.0 2.0 0.00 0.00 0.00 45 1010.4
20260906093839 84 257 0.0 2.0 0.00 0.00 0.00 45 1010.4
20260906093719 84 257 0.0 2.0 0.00 0.00 0.00 45 1010.4
20260906093621 84 257 1.0 2.0 0.00 0.00 0.00 45 1010.5
20260906093523 85 257 1.0 2.0 0.00 0.00 0.00 44 1010.4
20260906093433 85 257 0.0 2.0 0.00 0.00 0.00 44 1010.4
20260906093320 85 257 0.0 1.0 0.00 0.00 0.00 44 1010.5
20260906093221 85 257 0.0 1.0 0.00 0.00 0.00 44 1010.4
20260906093122 85 257 0.0 1.0 0.00 0.00 0.00 44 1010.5
20260906093033 85 257 0.0 1.0 0.00 0.00 0.00 43 1010.5
20260906092915 86 257 1.0 1.0 0.00 0.00 0.00 43 1010.5
20260906092817 86 257 0.0 1.0 0.00 0.00 0.00 43 1010.5
20260906092722 86 257 0.0 1.0 0.00 0.00 0.00 42 1010.5
20260906092633 86 257 0.0 1.0 0.00 0.00 0.00 42 1010.5
20260906092516 86 257 0.0 2.0 0.00 0.00 0.00 42 1010.5
20260906092418 86 257 0.0 2.0 0.00 0.00 0.00 43 1010.5
20260906092329 86 257 0.0 2.0 0.00 0.00 0.00 43 1010.5
20260906092251 86 257 0.0 2.0 0.00 0.00 0.00 42 1010.5
20260906092143 86 257 0.0 2.0 0.00 0.00 0.00 42 1010.6
20260906092043 86 257 0.0 2.0 0.00 0.00 0.00 42 1010.5
20260906091925 86 257 0.0 2.0 0.00 0.00 0.00 42 1010.5
20260906091855 86 257 0.0 2.0 0.00 0.00 0.00 42 1010.5
20260906091717 86 257 1.0 2.0 0.00 0.00 0.00 42 1010.5
20260906091617 86 257 0.0 2.0 0.00 0.00 0.00 42 1010.5
20260906091528 86 257 0.0 2.0 0.00 0.00 0.00 42 1010.5
20260906091433 86 257 0.0 2.0 0.00 0.00 0.00 42 1010.4
20260906091315 86 257 0.0 2.0 0.00 0.00 0.00 42 1010.4
20260906091217 86 257 0.0 2.0 0.00 0.00 0.00 42 1010.4
20260906091127 86 257 0.0 3.0 0.00 0.00 0.00 42 1010.4
20260906091029 86 257 0.0 3.0 0.00 0.00 0.00 42 1010.4
20260906090915 86 257 1.0 4.0 0.00 0.00 0.00 42 1010.4
20260906090817 86 257 1.0 4.0 0.00 0.00 0.00 42 1010.3
20260906090746 86 257 1.0 4.0 0.00 0.00 0.00 42 1010.4
20260906090636 86 257 1.0 4.0 0.00 0.00 0.00 42 1010.4
20260906090537 86 257 1.0 4.0 0.00 0.00 0.00 42 1010.3
20260906090420 86 257 1.0 4.0 0.00 0.00 0.00 42 1010.3
20260906090322 86 257 1.0 4.0 0.00 0.00 0.00 42 1010.2
20260906090237 86 257 1.0 4.0 0.00 0.00 0.00 42 1010.2
20260906090118 86 257 1.0 4.0 0.00 0.00 0.00 42 1010.3
20260906090032 86 257 1.0 4.0 0.00 0.00 0.00 42 1010.3
20260906085923 86 257 1.0 4.0 0.00 0.00 0.00 42 1010.3
20260906085833 86 257 1.0 4.0 0.00 0.00 0.00 42 1010.3
20260906085718 86 257 1.0 3.0 0.00 0.00 0.00 42 1010.3
20260906085620 86 257 0.0 2.0 0.00 0.00 0.00 42 1010.4
20260906085532 86 257 0.0 2.0 0.00 0.00 0.00 42 1010.4
20260906085453 86 257 0.0 2.0 0.00 0.00 0.00 42 1010.4
20260906085341 86 257 0.0 2.0 0.00 0.00 0.00 42 1010.4
20260906085224 86 257 0.0 2.0 0.00 0.00 0.00 42 1010.4
20260906085126 86 257 0.0 2.0 0.00 0.00 0.00 42 1010.4
20260906085032 86 257 1.0 2.0 0.00 0.00 0.00 42 1010.3
20260906084941 86 257 0.0 2.0 0.00 0.00 0.00 42 1010.3
20260906084824 86 257 0.0 2.0 0.00 0.00 0.00 42 1010.3
20260906084727 86 257 1.0 2.0 0.00 0.00 0.00 42 1010.3
20260906084635 86 257 0.0 2.0 0.00 0.00 0.00 42 1010.3
20260906084518 85 257 0.0 1.0 0.00 0.00 0.00 42 1010.4
20260906084443 85 257 0.0 1.0 0.00 0.00 0.00 43 1010.3
20260906084333 85 257 0.0 1.0 0.00 0.00 0.00 42 1010.3
20260906084234 85 257 0.0 1.0 0.00 0.00 0.00 42 1010.5
20260906084143 85 257 0.0 1.0 0.00 0.00 0.00 42 1010.4
20260906084022 85 257 0.0 1.0 0.00 0.00 0.00 42 1010.4
20260906083923 85 257 0.0 1.0 0.00 0.00 0.00 42 1010.4
20260906083833 85 257 0.0 1.0 0.00 0.00 0.00 42 1010.4
20260906083738 85 257 0.0 1.0 0.00 0.00 0.00 42 1010.5
20260906083628 85 257 0.0 1.0 0.00 0.00 0.00 42 1010.5
20260906083530 85 257 0.0 1.0 0.00 0.00 0.00 42 1010.5
20260906083432 85 257 0.0 1.0 0.00 0.00 0.00 42 1010.4
20260906083341 85 257 0.0 0.0 0.00 0.00 0.00 42 1010.5
20260906083223 86 257 0.0 0.0 0.00 0.00 0.00 42 1010.5
20260906083129 86 257 0.0 0.0 0.00 0.00 0.00 42 1010.5
20260906083059 86 257 0.0 0.0 0.00 0.00 0.00 42 1010.5
20260906082918 86 257 0.0 0.0 0.00 0.00 0.00 41 1010.5
20260906082848 86 257 0.0 0.0 0.00 0.00 0.00 41 1010.5
20260906082728 86 257 0.0 0.0 0.00 0.00 0.00 41 1010.6
20260906082657 86 257 0.0 0.0 0.00 0.00 0.00 41 1010.5
20260906082517 87 257 0.0 0.0 0.00 0.00 0.00 41 1010.6
20260906082418 87 257 0.0 0.0 0.00 0.00 0.00 41 1010.6
20260906082345 87 257 0.0 0.0 0.00 0.00 0.00 41 1010.6
20260906082240 87 257 0.0 0.0 0.00 0.00 0.00 41 1010.6
20260906082141 87 257 0.0 0.0 0.00 0.00 0.00 41 1010.6
20260906082024 87 257 0.0 0.0 0.00 0.00 0.00 41 1010.5
20260906081927 87 257 0.0 0.0 0.00 0.00 0.00 41 1010.5
20260906081835 87 257 0.0 0.0 0.00 0.00 0.00 41 1010.6
20260906081737 87 257 0.0 0.0 0.00 0.00 0.00 40 1010.6
20260906081645 87 257 0.0 1.0 0.00 0.00 0.00 41 1010.6
20260906081558 87 257 0.0 1.0 0.00 0.00 0.00 40 1010.6
20260906081420 87 257 0.0 1.0 0.00 0.00 0.00 40 1010.6
20260906081321 87 257 0.0 1.0 0.00 0.00 0.00 40 1010.6
20260906081231 87 257 0.0 1.0 0.00 0.00 0.00 40 1010.6
20260906081133 87 257 0.0 1.0 0.00 0.00 0.00 40 1010.6
20260906081102 87 257 0.0 2.0 0.00 0.00 0.00 40 1010.6
20260906080943 87 257 0.0 2.0 0.00 0.00 0.00 40 1010.7
20260906080828 87 257 0.0 2.0 0.00 0.00 0.00 40 1010.7
20260906080738 87 257 0.0 2.0 0.00 0.00 0.00 40 1010.7
20260906080620 87 257 0.0 2.0 0.00 0.00 0.00 40 1010.7
20260906080521 87 257 0.0 2.0 0.00 0.00 0.00 40 1010.7
20260906080451 87 257 0.0 2.0 0.00 0.00 0.00 40 1010.7
20260906080333 87 257 0.0 2.0 0.00 0.00 0.00 40 1010.7
20260906080218 87 257 0.0 2.0 0.00 0.00 0.00 40 1010.8
20260906080149 87 257 0.0 2.0 0.00 0.00 0.00 40 1010.8
20260906080040 87 257 1.0 2.0 0.00 0.00 0.00 40 1010.7
20260906075939 87 257 0.0 2.0 0.00 0.00 0.00 40 1010.8
20260906075821 87 257 0.0 1.0 0.00 0.00 0.00 40 1010.8
20260906075723 87 257 0.0 1.0 0.00 0.00 0.00 40 1010.8
20260906075624 87 257 1.0 1.0 0.00 0.00 0.00 40 1010.7
20260906075538 87 257 1.0 1.0 0.00 0.00 0.00 40 1010.7
20260906075439 87 257 0.0 1.0 0.00 0.00 0.00 40 1010.7
20260906075319 87 257 0.0 1.0 0.00 0.00 0.00 40 1010.8
20260906075229 87 257 0.0 1.0 0.00 0.00 0.00 40 1010.8
20260906075132 87 257 0.0 2.0 0.00 0.00 0.00 40 1010.8
20260906075042 87 257 0.0 2.0 0.00 0.00 0.00 40 1010.8
20260906074927 87 257 0.0 2.0 0.00 0.00 0.00 40 1010.8
20260906074828 87 257 0.0 2.0 0.00 0.00 0.00 40 1010.8
20260906074717 87 257 0.0 2.0 0.00 0.00 0.00 40 1010.8
20260906074617 87 257 0.0 2.0 0.00 0.00 0.00 40 1010.8
20260906074528 87 257 0.0 2.0 0.00 0.00 0.00 40 1010.8
20260906074429 87 257 0.0 2.0 0.00 0.00 0.00 40 1010.8
20260906074358 87 257 0.0 2.0 0.00 0.00 0.00 40 1010.8
20260906074222 87 257 0.0 2.0 0.00 0.00 0.00 40 1010.8
20260906074124 87 257 0.0 2.0 0.00 0.00 0.00 40 1010.9
20260906074032 87 257 0.0 2.0 0.00 0.00 0.00 40 1010.9
20260906073933 87 257 0.0 2.0 0.00 0.00 0.00 40 1011.0
20260906073835 87 257 0.0 2.0 0.00 0.00 0.00 40 1011.0
20260906073744 87 257 1.0 2.0 0.00 0.00 0.00 39 1011.1
20260906073624 88 257 1.0 2.0 0.00 0.00 0.00 39 1011.0
20260906073538 88 257 1.0 2.0 0.00 0.00 0.00 39 1011.0
20260906073421 88 257 0.0 2.0 0.00 0.00 0.00 39 1011.0
20260906073323 88 257 0.0 2.0 0.00 0.00 0.00 38 1010.8
20260906073227 88 257 0.0 2.0 0.00 0.00 0.00 38 1010.8
20260906073156 88 257 0.0 2.0 0.00 0.00 0.00 38 1010.8
20260906073016 88 257 0.0 2.0 0.00 0.00 0.00 38 1010.9
20260906072945 88 257 0.0 2.0 0.00 0.00 0.00 38 1010.8
20260906072830 88 257 0.0 2.0 0.00 0.00 0.00 38 1010.8
20260906072759 88 257 0.0 2.0 0.00 0.00 0.00 38 1010.8
20260906072621 88 257 0.0 3.0 0.00 0.00 0.00 38 1010.8
20260906072523 88 257 0.0 3.0 0.00 0.00 0.00 38 1010.8
20260906072427 88 257 0.0 3.0 0.00 0.00 0.00 38 1010.8
20260906072336 88 257 1.0 3.0 0.00 0.00 0.00 38 1010.9
20260906072242 89 257 1.0 3.0 0.00 0.00 0.00 38 1010.8
20260906072122 89 257 0.0 3.0 0.00 0.00 0.00 37 1010.8
20260906072033 89 257 0.0 3.0 0.00 0.00 0.00 38 1010.8
20260906072003 89 257 1.0 3.0 0.00 0.00 0.00 37 1010.8
20260906071824 89 257 1.0 3.0 0.00 0.00 0.00 38 1010.8
20260906071725 89 257 1.0 3.0 0.00 0.00 0.00 37 1010.9
20260906071627 89 257 1.0 3.0 0.00 0.00 0.00 37 1010.9
20260906071541 89 257 0.0 3.0 0.00 0.00 0.00 37 1010.8
20260906071423 89 257 0.0 3.0 0.00 0.00 0.00 37 1010.9
20260906071326 89 257 0.0 4.0 0.00 0.00 0.00 37 1010.9
20260906071228 89 257 1.0 4.0 0.00 0.00 0.00 37 1011.0
20260906071136 89 257 1.0 4.0 0.00 0.00 0.00 37 1011.0
20260906071018 89 257 1.0 4.0 0.00 0.00 0.00 37 1011.1
20260906070923 89 257 1.0 4.0 0.00 0.00 0.00 37 1011.0
20260906070833 88 257 1.0 4.0 0.00 0.00 0.00 38 1011.0
20260906070715 88 257 1.0 4.0 0.00 0.00 0.00 38 1011.1
20260906070638 88 257 2.0 4.0 0.00 0.00 0.00 38 1011.1
20260906070526 88 257 1.0 4.0 0.00 0.00 0.00 38 1011.1
20260906070428 88 257 0.0 3.0 0.00 0.00 0.00 38 1011.1
20260906070335 88 257 0.0 3.0 0.00 0.00 0.00 38 1011.2
20260906070241 88 257 0.0 3.0 0.00 0.00 0.00 38 1011.1
20260906070122 88 257 0.0 3.0 0.00 0.00 0.00 38 1011.1
20260906070041 88 257 0.0 3.0 0.00 0.00 0.00 38 1011.1
20260906065939 88 257 0.0 3.0 0.00 0.00 0.00 38 1011.1
20260906065822 88 257 0.0 3.0 0.00 0.00 0.00 39 1011.1
20260906065724 88 257 1.0 3.0 0.00 0.00 0.00 39 1011.1
20260906065630 88 257 1.0 3.0 0.00 0.00 0.00 39 1011.1
20260906065539 87 257 1.0 2.0 0.00 0.00 0.00 39 1011.1
20260906065422 87 257 0.0 2.0 0.00 0.00 0.00 39 1011.1
20260906065324 87 257 0.0 0.0 0.00 0.00 0.00 39 1011.1
20260906065226 87 257 0.0 0.0 0.00 0.00 0.00 39 1011.1
20260906065135 87 257 0.0 0.0 0.00 0.00 0.00 39 1011.0
20260906065042 87 257 0.0 0.0 0.00 0.00 0.00 39 1011.1
20260906064931 88 257 0.0 0.0 0.00 0.00 0.00 39 1011.1
20260906064833 88 257 0.0 0.0 0.00 0.00 0.00 39 1011.0
20260906064735 88 257 0.0 0.0 0.00 0.00 0.00 39 1011.0
20260906064617 88 257 0.0 0.0 0.00 0.00 0.00 39 1011.0
20260906064527 88 257 0.0 0.0 0.00 0.00 0.00 38 1011.0
20260906064433 88 257 0.0 2.0 0.00 0.00 0.00 38 1011.0
20260906064339 88 257 0.0 2.0 0.00 0.00 0.00 38 1011.0
20260906064221 88 257 0.0 2.0 0.00 0.00 0.00 38 1011.0
20260906064123 88 257 0.0 2.0 0.00 0.00 0.00 38 1010.9
20260906064026 88 257 0.0 2.0 0.00 0.00 0.00 38 1010.9
20260906063935 88 257 0.0 2.0 0.00 0.00 0.00 38 1010.9
20260906063822 88 257 0.0 2.0 0.00 0.00 0.00 38 1011.0
20260906063724 89 257 0.0 2.0 0.00 0.00 0.00 38 1010.9
20260906063627 89 257 0.0 2.0 0.00 0.00 0.00 38 1011.0
20260906063536 89 257 0.0 1.0 0.00 0.00 0.00 38 1011.0
20260906063419 89 257 0.0 1.0 0.00 0.00 0.00 38 1011.1
20260906063321 89 257 0.0 1.0 0.00 0.00 0.00 38 1011.0
20260906063226 89 257 0.0 0.0 0.00 0.00 0.00 38 1011.0
20260906063136 89 257 0.0 0.0 0.00 0.00 0.00 38 1011.0
20260906063019 89 257 0.0 0.0 0.00 0.00 0.00 37 1011.0
20260906062921 89 257 0.0 0.0 0.00 0.00 0.00 38 1011.0
20260906062851 89 257 0.0 0.0 0.00 0.00 0.00 38 1011.0
20260906062732 89 257 0.0 0.0 0.00 0.00 0.00 37 1011.0
20260906062618 89 257 0.0 0.0 0.00 0.00 0.00 37 1010.9
20260906062527 89 257 0.0 0.0 0.00 0.00 0.00 37 1011.0
20260906062430 89 257 0.0 0.0 0.00 0.00 0.00 37 1011.0
20260906062358 89 257 0.0 0.0 0.00 0.00 0.00 37 1010.8
20260906062220 89 257 0.0 0.0 0.00 0.00 0.00 37 1010.8
20260906062122 89 257 0.0 0.0 0.00 0.00 0.00 37 1010.8
20260906062025 89 257 0.0 0.0 0.00 0.00 0.00 37 1010.8
20260906061939 89 257 0.0 0.0 0.00 0.00 0.00 37 1010.8
20260906061819 89 257 0.0 1.0 0.00 0.00 0.00 37 1010.9
20260906061740 89 257 0.0 1.0 0.00 0.00 0.00 37 1010.8
20260906061629 89 257 0.0 1.0 0.00 0.00 0.00 37 1010.8
20260906061532 89 257 0.0 1.0 0.00 0.00 0.00 37 1010.8
20260906061435 89 257 0.0 1.0 0.00 0.00 0.00 37 1010.9
20260906061321 89 257 0.0 1.0 0.00 0.00 0.00 37 1010.8
20260906061231 89 257 0.0 1.0 0.00 0.00 0.00 37 1010.8
20260906061133 89 257 0.0 1.0 0.00 0.00 0.00 37 1010.9
20260906061015 89 257 0.0 0.0 0.00 0.00 0.00 37 1010.9
20260906060945 89 257 0.0 0.0 0.00 0.00 0.00 37 1010.8
20260906060846 89 257 0.0 0.0 0.00 0.00 0.00 36 1010.9
20260906060755 89 257 0.0 0.0 0.00 0.00 0.00 36 1010.9
20260906060620 89 257 0.0 1.0 0.00 0.00 0.00 36 1010.9
20260906060530 89 257 0.0 1.0 0.00 0.00 0.00 36 1010.9
20260906060432 89 257 0.0 1.0 0.00 0.00 0.00 37 1010.9
20260906060333 89 257 0.0 1.0 0.00 0.00 0.00 36 1010.9
20260906060242 89 257 0.0 1.0 0.00 0.00 0.00 36 1011.0
20260906060123 89 257 0.0 1.0 0.00 0.00 0.00 36 1011.0
20260906060040 89 257 0.0 1.0 0.00 0.00 0.00 36 1011.0
20260906055938 89 257 0.0 1.0 0.00 0.00 0.00 37 1010.9
20260906055820 89 257 0.0 1.0 0.00 0.00 0.00 37 1011.0
20260906055721 90 257 0.0 1.0 0.00 0.00 0.00 37 1011.1
20260906055623 90 257 0.0 1.0 0.00 0.00 0.00 37 1011.1
20260906055533 90 257 0.0 2.0 0.00 0.00 0.00 37 1011.1
20260906055419 90 257 0.0 2.0 0.00 0.00 0.00 37 1011.1
20260906055320 90 257 0.0 2.0 0.00 0.00 0.00 37 1011.1
20260906055231 90 257 0.0 2.0 0.00 0.00 0.00 37 1011.1
20260906055151 90 257 0.0 2.0 0.00 0.00 0.00 37 1011.1
20260906055039 90 257 0.0 2.0 0.00 0.00 0.00 37 1011.1
20260906054921 90 257 1.0 2.0 0.00 0.00 0.00 37 1011.1
20260906054822 89 257 1.0 2.0 0.00 0.00 0.00 37 1011.1
20260906054756 89 257 1.0 2.0 0.00 0.00 0.00 37 1011.1
20260906054617 89 257 0.0 2.0 0.00 0.00 0.00 37 1011.1
20260906054519 89 257 0.0 1.0 0.00 0.00 0.00 37 1011.1
20260906054426 89 257 0.0 1.0 0.00 0.00 0.00 37 1011.2
20260906054327 89 257 0.0 1.0 0.00 0.00 0.00 37 1011.1
20260906054237 90 257 0.0 1.0 0.00 0.00 0.00 37 1011.1
20260906054124 90 257 0.0 0.0 0.00 0.00 0.00 37 1011.1
20260906054027 90 257 0.0 0.0 0.00 0.00 0.00 37 1011.1
20260906053934 90 257 0.0 0.0 0.00 0.00 0.00 37 1011.1
20260906053816 90 257 0.0 0.0 0.00 0.00 0.00 37 1011.1
20260906053718 90 257 0.0 0.0 0.00 0.00 0.00 37 1011.0
20260906053647 90 257 0.0 0.0 0.00 0.00 0.00 37 1011.0
20260906053556 90 257 0.0 0.0 0.00 0.00 0.00 37 1011.0
20260906053421 90 257 0.0 0.0 0.00 0.00 0.00 37 1011.0
20260906053343 90 257 0.0 0.0 0.00 0.00 0.00 37 1011.0
20260906053233 89 257 0.0 0.0 0.00 0.00 0.00 37 1011.0
20260906053135 89 257 0.0 0.0 0.00 0.00 0.00 37 1011.0
20260906053018 89 257 0.0 0.0 0.00 0.00 0.00 37 1011.1
20260906052919 89 257 0.0 0.0 0.00 0.00 0.00 37 1011.0
20260906052830 89 257 0.0 0.0 0.00 0.00 0.00 37 1011.0
20260906052735 89 257 0.0 0.0 0.00 0.00 0.00 36 1011.0
20260906052616 89 257 0.0 0.0 0.00 0.00 0.00 37 1011.0
20260906052524 89 257 0.0 0.0 0.00 0.00 0.00 37 1011.0
20260906052446 89 257 0.0 0.0 0.00 0.00 0.00 37 1011.0
20260906052342 89 257 0.0 0.0 0.00 0.00 0.00 37 1011.0
20260906052223 89 257 0.0 0.0 0.00 0.00 0.00 37 1011.1
20260906052125 89 257 0.0 0.0 0.00 0.00 0.00 37 1011.1
20260906052018 89 257 0.0 0.0 0.00 0.00 0.00 36 1011.1
20260906051921 90 257 0.0 0.0 0.00 0.00 0.00 36 1011.1
20260906051823 90 257 0.0 0.0 0.00 0.00 0.00 36 1011.1
20260906051732 90 257 0.0 0.0 0.00 0.00 0.00 36 1011.1
20260906051634 90 257 0.0 0.0 0.00 0.00 0.00 36 1011.1
20260906051520 90 257 0.0 0.0 0.00 0.00 0.00 36 1011.1
20260906051421 90 257 0.0 0.0 0.00 0.00 0.00 36 1011.2
20260906051351 90 257 0.0 0.0 0.00 0.00 0.00 36 1011.2
20260906051231 90 257 0.0 0.0 0.00 0.00 0.00 36 1011.1
20260906051141 90 257 0.0 0.0 0.00 0.00 0.00 36 1011.2
20260906051023 90 257 0.0 0.0 0.00 0.00 0.00 36 1011.2
20260906050925 90 257 0.0 0.0 0.00 0.00 0.00 36 1011.2
20260906050837 90 257 0.0 0.0 0.00 0.00 0.00 36 1011.2
20260906050719 90 257 0.0 0.0 0.00 0.00 0.00 36 1011.2
20260906050623 90 257 0.0 0.0 0.00 0.00 0.00 36 1011.2
20260906050525 90 257 0.0 0.0 0.00 0.00 0.00 36 1011.2
20260906050434 90 257 0.0 0.0 0.00 0.00 0.00 36 1011.2
20260906050316 90 257 0.0 0.0 0.00 0.00 0.00 36 1011.2
20260906050222 90 257 0.0 0.0 0.00 0.00 0.00 36 1011.3
20260906050124 90 257 0.0 0.0 0.00 0.00 0.00 36 1011.3
20260906050046 90 257 0.0 0.0 0.00 0.00 0.00 36 1011.3
20260906045917 90 257 0.0 0.0 0.00 0.00 0.00 36 1011.2
20260906045819 90 257 0.0 0.0 0.00 0.00 0.00 36 1011.2
20260906045748 90 257 0.0 0.0 0.00 0.00 0.00 36 1011.2
20260906045635 90 257 0.0 0.0 0.00 0.00 0.00 36 1011.2
20260906045520 90 257 0.0 0.0 0.00 0.00 0.00 36 1011.1
20260906045449 90 257 0.0 0.0 0.00 0.00 0.00 36 1011.1
20260906045331 90 257 0.0 0.0 0.00 0.00 0.00 36 1011.1
20260906045240 90 257 0.0 0.0 0.00 0.00 0.00 37 1011.2
20260906045120 90 257 0.0 0.0 0.00 0.00 0.00 37 1011.1
20260906045027 90 257 0.0 0.0 0.00 0.00 0.00 36 1011.1
20260906044930 90 257 0.0 0.0 0.00 0.00 0.00 36 1011.1
20260906044815 90 257 0.0 0.0 0.00 0.00 0.00 36 1011.2
20260906044725 90 257 0.0 0.0 0.00 0.00 0.00 37 1011.1
20260906044627 90 257 0.0 0.0 0.00 0.00 0.00 36 1011.2
20260906044528 90 257 0.0 0.0 0.00 0.00 0.00 36 1011.2
20260906044416 90 257 0.0 0.0 0.00 0.00 0.00 36 1011.1
20260906044318 90 257 0.0 0.0 0.00 0.00 0.00 36 1011.1
20260906044220 90 257 0.0 0.0 0.00 0.00 0.00 36 1011.1
20260906044153 90 257 0.0 0.0 0.00 0.00 0.00 36 1011.1
20260906044033 90 257 0.0 0.0 0.00 0.00 0.00 36 1011.1
20260906043915 90 257 0.0 0.0 0.00 0.00 0.00 36 1011.1
20260906043827 91 257 0.0 0.0 0.00 0.00 0.00 36 1011.1
20260906043727 91 257 0.0 0.0 0.00 0.00 0.00 36 1011.0
20260906043638 91 257 0.0 0.0 0.00 0.00 0.00 36 1011.0
20260906043543 91 257 0.0 1.0 0.00 0.00 0.00 36 1011.1
20260906043424 91 257 0.0 1.0 0.00 0.00 0.00 36 1011.1
20260906043332 91 257 0.0 1.0 0.00 0.00 0.00 36 1011.1
20260906043234 91 257 0.0 2.0 0.00 0.00 0.00 36 1011.1
20260906043115 91 257 0.0 2.0 0.00 0.00 0.00 36 1011.1
20260906043025 91 257 0.0 2.0 0.00 0.00 0.00 36 1011.1
20260906042926 91 257 0.0 2.0 0.00 0.00 0.00 36 1011.1
20260906042832 91 257 0.0 2.0 0.00 0.00 0.00 35 1011.1
20260906042740 91 257 0.0 2.0 0.00 0.00 0.00 35 1011.2
20260906042623 91 257 0.0 2.0 0.00 0.00 0.00 35 1011.2
20260906042545 91 257 0.0 2.0 0.00 0.00 0.00 35 1011.3
20260906042434 91 257 0.0 2.0 0.00 0.00 0.00 35 1011.3
20260906042335 91 257 0.0 2.0 0.00 0.00 0.00 35 1011.3
20260906042220 91 257 0.0 2.0 0.00 0.00 0.00 35 1011.3
20260906042129 91 257 1.0 2.0 0.00 0.00 0.00 35 1011.3
20260906042029 92 257 1.0 2.0 0.00 0.00 0.00 35 1011.3
20260906041916 92 257 0.0 2.0 0.00 0.00 0.00 35 1011.2
20260906041819 92 257 0.0 2.0 0.00 0.00 0.00 35 1011.3
20260906041728 92 257 1.0 2.0 0.00 0.00 0.00 34 1011.3
20260906041627 92 257 0.0 2.0 0.00 0.00 0.00 34 1011.3
20260906041557 92 257 0.0 2.0 0.00 0.00 0.00 34 1011.3
20260906041422 92 257 0.0 1.0 0.00 0.00 0.00 34 1011.3
20260906041344 92 257 0.0 1.0 0.00 0.00 0.00 34 1011.3
20260906041233 92 257 0.0 1.0 0.00 0.00 0.00 34 1011.3
20260906041134 92 257 0.0 1.0 0.00 0.00 0.00 34 1011.2
20260906041017 92 257 0.0 1.0 0.00 0.00 0.00 34 1011.2
20260906040919 92 257 0.0 1.0 0.00 0.00 0.00 34 1011.2
20260906040834 92 257 0.0 1.0 0.00 0.00 0.00 34 1011.2
20260906040716 92 257 0.0 1.0 0.00 0.00 0.00 34 1011.1
20260906040618 92 257 0.0 1.0 0.00 0.00 0.00 34 1011.1
20260906040525 92 257 0.0 1.0 0.00 0.00 0.00 34 1011.1
20260906040427 92 257 0.0 1.0 0.00 0.00 0.00 34 1011.1
20260906040328 92 257 0.0 1.0 0.00 0.00 0.00 35 1011.1
20260906040221 92 257 0.0 1.0 0.00 0.00 0.00 35 1011.1
20260906040149 92 257 0.0 1.0 0.00 0.00 0.00 35 1011.1
20260906040042 92 257 0.0 1.0 0.00 0.00 0.00 35 1011.1
20260906035941 92 257 0.0 0.0 0.00 0.00 0.00 35 1011.2
20260906035815 92 257 0.0 0.0 0.00 0.00 0.00 35 1011.0
20260906035725 92 257 0.0 0.0 0.00 0.00 0.00 35 1011.2
20260906035625 92 257 0.0 0.0 0.00 0.00 0.00 34 1011.2
20260906035541 92 257 0.0 0.0 0.00 0.00 0.00 35 1011.2
20260906035422 92 257 0.0 0.0 0.00 0.00 0.00 34 1011.1
20260906035324 92 257 0.0 0.0 0.00 0.00 0.00 34 1011.1
20260906035254 92 257 0.0 0.0 0.00 0.00 0.00 34 1011.1
20260906035115 92 257 0.0 0.0 0.00 0.00 0.00 34 1011.0
20260906035037 92 257 0.0 0.0 0.00 0.00 0.00 34 1011.1
20260906034930 92 257 0.0 0.0 0.00 0.00 0.00 34 1011.1
20260906034834 92 257 0.0 0.0 0.00 0.00 0.00 34 1011.1
20260906034732 92 257 0.0 0.0 0.00 0.00 0.00 33 1011.1
20260906034641 92 257 0.0 0.0 0.00 0.00 0.00 33 1011.0
20260906034523 92 257 0.0 0.0 0.00 0.00 0.00 33 1011.0
20260906034425 92 257 0.0 0.0 0.00 0.00 0.00 33 1011.0
20260906034332 92 257 0.0 0.0 0.00 0.00 0.00 33 1011.0
20260906034237 92 257 0.0 0.0 0.00 0.00 0.00 33 1011.0
20260906034120 92 257 0.0 0.0 0.00 0.00 0.00 33 1010.9
20260906034041 92 257 0.0 0.0 0.00 0.00 0.00 33 1010.9
20260906033950 92 257 0.0 0.0 0.00 0.00 0.00 33 1010.9
20260906033857 92 257 0.0 0.0 0.00 0.00 0.00 33 1010.9
20260906033814 92 257 0.0 0.0 0.00 0.00 0.00 33 1010.9
20260906033701 92 257 0.0 0.0 0.00 0.00 0.00 33 1010.8
20260906033538 92 257 0.0 0.0 0.00 0.00 0.00 33 1010.8
20260906033431 92 257 0.0 0.0 0.00 0.00 0.00 33 1010.8
20260906033331 92 257 0.0 0.0 0.00 0.00 0.00 33 1010.8
20260906033234 92 257 0.0 0.0 0.00 0.00 0.00 33 1010.8
20260906033142 92 257 0.0 0.0 0.00 0.00 0.00 33 1010.8
20260906033052 92 257 0.0 0.0 0.00 0.00 0.00 33 1010.8
20260906032950 92 257 0.0 0.0 0.00 0.00 0.00 33 1010.8
20260906032837 92 257 0.0 1.0 0.00 0.00 0.00 33 1010.9
20260906032719 92 257 0.0 1.0 0.00 0.00 0.00 33 1010.8
20260906032649 92 257 0.0 1.0 0.00 0.00 0.00 33 1010.8
20260906032534 92 257 0.0 1.0 0.00 0.00 0.00 33 1010.8
20260906032416 92 257 0.0 1.0 0.00 0.00 0.00 33 1010.7
20260906032346 92 257 0.0 1.0 0.00 0.00 0.00 33 1010.8
20260906032247 92 257 0.0 1.0 0.00 0.00 0.00 33 1010.7
20260906032136 93 257 0.0 1.0 0.00 0.00 0.00 33 1010.7
20260906032038 93 257 0.0 1.0 0.00 0.00 0.00 33 1010.6
20260906031946 93 257 0.0 1.0 0.00 0.00 0.00 33 1010.6
20260906031832 93 257 0.0 1.0 0.00 0.00 0.00 33 1010.6
20260906031741 93 257 0.0 1.0 0.00 0.00 0.00 33 1010.6
20260906031644 93 257 0.0 1.0 0.00 0.00 0.00 33 1010.6
20260906031524 93 257 0.0 1.0 0.00 0.00 0.00 33 1010.6
20260906031434 93 257 0.0 1.0 0.00 0.00 0.00 33 1010.6
20260906031317 93 257 0.0 1.0 0.00 0.00 0.00 32 1010.6
20260906031223 93 257 0.0 1.0 0.00 0.00 0.00 33 1010.6
20260906031153 93 257 0.0 1.0 0.00 0.00 0.00 33 1010.6
20260906031054 93 257 0.0 1.0 0.00 0.00 0.00 33 1010.6
20260906030941 93 257 0.0 1.0 0.00 0.00 0.00 33 1010.6
20260906030844 93 257 0.0 2.0 0.00 0.00 0.00 32 1010.6
20260906030723 93 257 0.0 2.0 0.00 0.00 0.00 32 1010.6
20260906030634 93 257 0.0 2.0 0.00 0.00 0.00 32 1010.6
20260906030520 93 257 0.0 3.0 0.00 0.00 0.00 32 1010.6
20260906030441 93 257 0.0 3.0 0.00 0.00 0.00 32 1010.7
20260906030328 93 257 1.0 3.0 0.00 0.00 0.00 32 1010.6
20260906030230 93 257 1.0 3.0 0.00 0.00 0.00 32 1010.6
20260906030132 93 257 0.0 3.0 0.00 0.00 0.00 32 1010.6
20260906030031 93 257 0.0 3.0 0.00 0.00 0.00 32 1010.6
20260906025923 93 257 0.0 3.0 0.00 0.00 0.00 32 1010.7
20260906025827 93 257 0.0 3.0 0.00 0.00 0.00 32 1010.6
20260906025737 93 257 0.0 3.0 0.00 0.00 0.00 32 1010.6
20260906025619 93 257 0.0 2.0 0.00 0.00 0.00 32 1010.6
20260906025521 93 257 1.0 2.0 0.00 0.00 0.00 32 1010.6
20260906025430 93 257 0.0 2.0 0.00 0.00 0.00 32 1010.6
20260906025352 93 257 0.0 3.0 0.00 0.00 0.00 32 1010.6
20260906025240 93 257 0.0 4.0 0.00 0.00 0.00 32 1010.5
20260906025153 93 257 1.0 4.0 0.00 0.00 0.00 32 1010.5
20260906025034 94 257 1.0 4.0 0.00 0.00 0.00 32 1010.6
20260906024915 94 257 1.0 4.0 0.00 0.00 0.00 32 1010.5
20260906024845 94 257 1.0 6.0 0.00 0.00 0.00 31 1010.5
20260906024725 94 257 1.0 6.0 0.00 0.00 0.00 32 1010.5
20260906024655 94 257 1.0 6.0 0.00 0.00 0.00 32 1010.5
20260906024516 94 257 1.0 6.0 0.00 0.00 0.00 31 1010.4
20260906024355 94 257 1.0 6.0 0.00 0.00 0.00 32 1010.5
20260906024217 94 257 2.0 6.0 0.00 0.00 0.00 31 1010.4
20260906024119 94 257 2.0 6.0 0.00 0.00 0.00 32 1010.4
20260906024029 94 257 2.0 6.0 0.00 0.00 0.00 32 1010.4
20260906023930 94 257 1.0 6.0 0.00 0.00 0.00 32 1010.4
20260906023859 94 257 1.0 4.0 0.00 0.00 0.00 32 1010.4
20260906023724 94 257 1.0 4.0 0.00 0.00 0.00 31 1010.4
20260906023627 94 257 2.0 4.0 0.00 0.00 0.00 31 1010.4
20260906023527 94 257 2.0 4.0 0.00 0.00 0.00 31 1010.4
20260906023437 94 257 1.0 4.0 0.00 0.00 0.00 31 1010.4
20260906023320 94 257 1.0 4.0 0.00 0.00 0.00 31 1010.3
20260906023222 94 257 1.0 4.0 0.00 0.00 0.00 31 1010.2
20260906023136 94 257 1.0 4.0 0.00 0.00 0.00 31 1010.2
20260906023018 94 257 1.0 5.0 0.00 0.00 0.00 31 1010.3
20260906022920 95 257 1.0 5.0 0.00 0.00 0.00 31 1010.3
20260906022851 95 257 2.0 5.0 0.00 0.00 0.00 31 1010.3
20260906022732 95 257 1.0 5.0 0.00 0.00 0.00 31 1010.3
20260906022634 95 256 1.0 6.0 0.00 0.00 0.00 31 1010.3
20260906022518 95 256 2.0 6.0 0.00 0.00 0.00 31 1010.4
20260906022427 95 256 2.0 6.0 0.00 0.00 0.00 31 1010.4
20260906022330 95 254 2.0 6.0 0.00 0.00 0.00 31 1010.4
20260906022300 95 254 2.0 6.0 0.00 0.00 0.00 31 1010.3
20260906022121 95 253 1.0 6.0 0.00 0.00 0.00 30 1010.4
20260906022043 95 249 2.0 6.0 0.00 0.00 0.00 30 1010.3
20260906021951 95 249 3.0 6.0 0.00 0.00 0.00 30 1010.3
20260906021817 95 249 2.0 6.0 0.00 0.00 0.00 30 1010.4
20260906021727 95 248 1.0 5.0 0.00 0.00 0.00 30 1010.3
20260906021649 96 248 1.0 5.0 0.00 0.00 0.00 30 1010.4
20260906021536 96 248 1.0 5.0 0.00 0.00 0.00 30 1010.4
20260906021416 96 248 1.0 5.0 0.00 0.00 0.00 30 1010.4
20260906021317 96 248 1.0 5.0 0.00 0.00 0.00 30 1010.4
20260906021246 96 248 0.0 5.0 0.00 0.00 0.00 30 1010.5
20260906021133 96 248 1.0 5.0 0.00 0.00 0.00 30 1010.5
20260906021015 96 247 1.0 5.0 0.00 0.00 0.00 30 1010.4
20260906020925 96 247 1.0 5.0 0.00 0.00 0.00 30 1010.5
20260906020826 96 247 1.0 5.0 0.00 0.00 0.00 30 1010.4
20260906020728 96 247 1.0 5.0 0.00 0.00 0.00 30 1010.5
20260906020637 96 247 1.0 5.0 0.00 0.00 0.00 30 1010.4
20260906020516 96 247 1.0 6.0 0.00 0.00 0.00 30 1010.4
20260906020430 96 247 1.0 6.0 0.00 0.00 0.00 30 1010.4
20260906020333 96 247 1.0 6.0 0.00 0.00 0.00 30 1010.4
20260906020302 96 246 1.0 6.0 0.00 0.00 0.00 29 1010.4
20260906020122 96 246 2.0 6.0 0.00 0.00 0.00 29 1010.4
20260906020104 96 245 2.0 6.0 0.00 0.00 0.00 29 1010.4
20260906015933 96 245 2.0 6.0 0.00 0.00 0.00 29 1010.4
20260906015819 96 245 2.0 6.0 0.00 0.00 0.00 29 1010.4
20260906015721 96 245 2.0 6.0 0.00 0.00 0.00 29 1010.4
20260906015630 96 245 1.0 5.0 0.00 0.00 0.00 30 1010.4
20260906015533 96 245 0.0 6.0 0.00 0.00 0.00 29 1010.4
20260906015443 96 245 0.0 6.0 0.00 0.00 0.00 29 1010.3
20260906015317 96 245 1.0 6.0 0.00 0.00 0.00 29 1010.4
20260906015225 96 245 1.0 6.0 0.00 0.00 0.00 29 1010.4
20260906015139 96 245 1.0 6.0 0.00 0.00 0.00 29 1010.4
20260906015021 96 245 1.0 6.0 0.00 0.00 0.00 30 1010.4
20260906014922 96 245 2.0 6.0 0.00 0.00 0.00 29 1010.4
20260906014823 97 245 3.0 6.0 0.00 0.00 0.00 29 1010.4
20260906014733 97 244 3.0 6.0 0.00 0.00 0.00 29 1010.4
20260906014656 97 244 1.0 6.0 0.00 0.00 0.00 29 1010.4
20260906014526 97 244 1.0 6.0 0.00 0.00 0.00 29 1010.4
20260906014429 97 244 2.0 7.0 0.00 0.00 0.00 29 1010.4
20260906014330 97 244 3.0 7.0 0.00 0.00 0.00 29 1010.4
20260906014240 97 244 3.0 7.0 0.00 0.00 0.00 29 1010.3
20260906014122 97 244 1.0 7.0 0.00 0.00 0.00 29 1010.4
20260906014024 97 244 2.0 7.0 0.00 0.00 0.00 29 1010.4
20260906013931 97 244 2.0 7.0 0.00 0.00 0.00 29 1010.4
20260906013839 97 243 3.0 7.0 0.00 0.00 0.00 29 1010.4
20260906013722 97 243 3.0 7.0 0.00 0.00 0.00 29 1010.4
20260906013644 97 239 2.0 5.0 0.00 0.00 0.00 29 1010.4
20260906013534 97 239 2.0 6.0 0.00 0.00 0.00 29 1010.4
20260906013503 97 238 1.0 6.0 0.00 0.00 0.00 29 1010.4
20260906013316 97 238 1.0 7.0 0.00 0.00 0.00 29 1010.4
20260906013230 97 238 2.0 7.0 0.00 0.00 0.00 29 1010.4
20260906013132 97 238 1.0 7.0 0.00 0.00 0.00 29 1010.4
20260906013040 97 240 1.0 7.0 0.00 0.00 0.00 29 1010.4
20260906012922 97 240 1.0 7.0 0.00 0.00 0.00 29 1010.4
20260906012824 97 242 1.0 7.0 0.00 0.00 0.00 29 1010.4
20260906012734 98 242 2.0 7.0 0.00 0.00 0.00 28 1010.4
20260906012621 97 241 3.0 7.0 0.00 0.00 0.00 28 1010.5
20260906012523 98 242 3.0 8.0 0.00 0.00 0.00 28 1010.5
20260906012454 97 245 2.0 8.0 0.00 0.00 0.00 28 1010.5
20260906012335 97 246 1.0 8.0 0.00 0.00 0.00 28 1010.5
20260906012216 97 246 1.0 10.0 0.00 0.00 0.00 28 1010.6
20260906012119 97 246 2.0 10.0 0.00 0.00 0.00 28 1010.6
20260906012030 97 246 3.0 10.0 0.00 0.00 0.00 28 1010.6
20260906011932 97 247 3.0 10.0 0.00 0.00 0.00 28 1010.6
20260906011841 97 247 3.0 10.0 0.00 0.00 0.00 28 1010.6
20260906011723 98 249 3.0 10.0 0.00 0.00 0.00 28 1010.6
20260906011625 97 249 3.0 10.0 0.00 0.00 0.00 28 1010.7
20260906011527 97 249 4.0 10.0 0.00 0.00 0.00 29 1010.7
20260906011419 97 249 4.0 10.0 0.00 0.00 0.00 28 1010.7
20260906011320 97 248 3.0 8.0 0.00 0.00 0.00 28 1010.7
20260906011222 97 248 4.0 8.0 0.00 0.00 0.00 29 1010.6
20260906011133 97 248 3.0 8.0 0.00 0.00 0.00 29 1010.6
20260906011034 97 247 2.0 8.0 0.00 0.00 0.00 29 1010.6
20260906010916 97 247 1.0 8.0 0.00 0.00 0.00 29 1010.7
20260906010822 97 247 1.0 8.0 0.00 0.00 0.00 29 1010.6
20260906010733 97 247 2.0 9.0 0.00 0.00 0.00 29 1010.6
20260906010633 97 252 3.0 9.0 0.00 0.00 0.00 29 1010.6
20260906010516 97 256 3.0 9.0 0.00 0.00 0.00 29 1010.7
20260906010418 97 254 2.0 9.0 0.00 0.00 0.00 29 1010.6
20260906010327 97 254 3.0 9.0 0.00 0.00 0.00 29 1010.7
20260906010235 97 255 3.0 9.0 0.00 0.00 0.00 29 1010.7
20260906010204 97 255 3.0 9.0 0.00 0.00 0.00 29 1010.7
20260906010036 97 255 3.0 9.0 0.00 0.00 0.00 29 1010.6
20260906005954 97 257 3.0 9.0 0.00 0.00 0.00 29 1010.7
20260906005855 97 258 2.0 9.0 0.00 0.00 0.00 29 1010.6
20260906005743 97 257 1.0 8.0 0.00 0.00 0.00 29 1010.6
20260906005624 98 257 2.0 11.0 0.00 0.00 0.00 29 1010.5
20260906005526 98 257 3.0 11.0 0.00 0.00 0.00 29 1010.5
20260906005440 98 256 3.0 11.0 0.00 0.00 0.00 29 1010.5
20260906005322 98 263 3.0 11.0 0.00 0.00 0.00 28 1010.5
20260906005224 98 268 2.0 11.0 0.00 0.00 0.00 28 1010.5
20260906005125 98 269 3.0 11.0 0.00 0.00 0.00 28 1010.4
20260906005036 98 244 3.0 11.0 0.00 0.00 0.00 28 1010.4
20260906004921 98 244 5.0 11.0 0.00 0.00 0.00 28 1010.4
20260906004852 98 243 5.0 11.0 0.00 0.00 0.00 28 1010.4
20260906004732 98 240 3.0 8.0 0.00 0.00 0.00 28 1010.4
20260906004615 98 240 3.0 8.0 0.00 0.00 0.00 28 1010.5
20260906004517 98 242 3.0 8.0 0.00 0.00 0.00 28 1010.4
20260906004427 98 245 2.0 8.0 0.00 0.00 0.00 28 1010.5
20260906004330 98 244 1.0 8.0 0.00 0.00 0.00 29 1010.5
20260906004216 98 244 2.0 8.0 0.00 0.00 0.00 28 1010.4
20260906004118 98 244 3.0 8.0 0.00 0.00 0.00 28 1010.4
20260906004027 98 244 3.0 8.0 0.00 0.00 0.00 28 1010.4
20260906003929 98 244 2.0 8.0 0.00 0.00 0.00 28 1010.5
20260906003830 99 244 3.0 9.0 0.00 0.00 0.00 28 1010.5
20260906003740 98 244 3.0 9.0 0.00 0.00 0.00 28 1010.5
20260906003625 98 241 2.0 9.0 0.00 0.00 0.00 28 1010.5
20260906003527 99 238 2.0 9.0 0.00 0.00 0.00 28 1010.5
20260906003436 99 238 1.0 9.0 0.00 0.00 0.00 29 1010.5
20260906003319 99 237 2.0 9.0 0.00 0.00 0.00 28 1010.4
20260906003221 99 236 3.0 9.0 0.00 0.00 0.00 28 1010.5
20260906003130 99 236 4.0 11.0 0.00 0.00 0.00 28 1010.5
20260906003015 99 235 3.0 11.0 0.00 0.00 0.00 28 1010.5
20260906002924 99 235 2.0 11.0 0.00 0.00 0.00 28 1010.5
20260906002825 99 245 2.0 11.0 0.00 0.00 0.00 28 1010.5
20260906002755 99 247 3.0 11.0 0.00 0.00 0.00 28 1010.5
20260906002537 99 248 3.0 11.0 0.00 0.00 0.00 28 1010.5
20260906002439 99 249 4.0 11.0 0.00 0.00 0.00 28 1010.5
20260906002320 99 249 4.0 11.0 0.00 0.00 0.00 28 1010.4
20260906002234 99 250 3.0 11.0 0.00 0.00 0.00 28 1010.4
20260906002117 99 260 3.0 11.0 0.00 0.00 0.00 28 1010.5
20260906002020 99 265 3.0 11.0 0.00 0.00 0.00 28 1010.4
20260906001922 99 268 2.0 11.0 0.00 0.00 0.00 28 1010.3
20260906001831 99 265 3.0 11.0 0.00 0.00 0.00 28 1010.3
20260906001733 99 265 3.0 11.0 0.00 0.00 0.00 28 1010.3
20260906001619 99 243 3.0 11.0 0.00 0.00 0.00 28 1010.3
20260906001529 99 245 3.0 11.0 0.00 0.00 0.00 28 1010.3
20260906001430 99 245 3.0 11.0 0.00 0.00 0.00 28 1010.3
20260906001331 99 247 2.0 11.0 0.00 0.00 0.00 28 1010.3
20260906001222 99 247 4.0 11.0 0.00 0.00 0.00 28 1010.4
20260906001123 99 249 5.0 11.0 0.00 0.00 0.00 28 1010.4
20260906001035 99 250 3.0 8.0 0.00 0.00 0.00 28 1010.4
20260906000916 99 248 2.0 7.0 0.00 0.00 0.00 28 1010.5
20260906000819 100 248 2.0 6.0 0.00 0.00 0.00 28 1010.4
20260906000716 100 248 3.0 6.0 0.00 0.00 0.00 28 1010.5
20260906000618 100 248 2.0 6.0 0.00 0.00 0.00 27 1010.5
20260906000520 100 262 2.0 6.0 0.00 0.00 0.00 27 1010.5
20260906000430 100 259 2.0 6.0 0.00 0.00 0.00 27 1010.5
20260906000356 100 259 1.0 6.0 0.00 0.00 0.00 27 1010.4
20260906000242 100 258 1.0 6.0 0.00 0.00 0.00 27 1010.4
20260906000120 100 257 1.0 6.0 0.00 0.00 0.00 27 1010.5
20260906000034 100 257 1.0 6.0 0.00 0.00 0.00 27 1010.5
20260905235930 100 257 2.0 6.0 0.00 0.00 0.00 27 1010.4
20260905235832 100 257 1.0 6.0 0.00 0.00 0.00 27 1010.4
20260905235720 100 257 1.0 6.0 0.00 0.00 0.00 27 1010.5
20260905235626 100 257 1.0 6.0 0.00 0.00 0.00 27 1010.3
20260905235527 100 255 1.0 7.0 0.00 0.00 0.00 27 1010.4
20260905235438 100 255 1.0 8.0 0.00 0.00 0.00 27 1010.4
20260905235320 99 253 2.0 8.0 0.00 0.00 0.00 27 1010.4
20260905235222 99 254 2.0 8.0 0.00 0.00 0.00 27 1010.4
20260905235125 99 253 3.0 8.0 0.00 0.00 0.00 27 1010.4
20260905235037 99 255 1.0 8.0 0.00 0.00 0.00 27 1010.4
20260905234919 99 255 1.0 8.0 0.00 0.00 0.00 27 1010.5
20260905234820 99 255 2.0 8.0 0.00 0.00 0.00 27 1010.4
20260905234725 100 255 3.0 8.0 0.00 0.00 0.00 26 1010.4
20260905234627 100 255 2.0 8.0 0.00 0.00 0.00 26 1010.4
20260905234557 100 256 3.0 6.0 0.00 0.00 0.00 26 1010.4
20260905234442 100 257 2.0 6.0 0.00 0.00 0.00 26 1010.5
20260905234333 100 257 2.0 6.0 0.00 0.00 0.00 26 1010.4
20260905234240 100 257 2.0 8.0 0.00 0.00 0.00 26 1010.4
20260905234143 100 257 2.0 8.0 0.00 0.00 0.00 26 1010.4
20260905234112 100 255 2.0 8.0 0.00 0.00 0.00 26 1010.5
20260905233925 100 255 1.0 8.0 0.00 0.00 0.00 26 1010.5
20260905233827 100 255 2.0 8.0 0.00 0.00 0.00 26 1010.5
20260905233734 100 255 2.0 8.0 0.00 0.00 0.00 25 1010.5
20260905233615 101 255 2.0 8.0 0.00 0.00 0.00 25 1010.6
20260905233544 101 254 3.0 8.0 0.00 0.00 0.00 25 1010.6
20260905233434 101 252 3.0 8.0 0.00 0.00 0.00 25 1010.6
20260905233336 101 252 3.0 8.0 0.00 0.00 0.00 25 1010.6
20260905233219 101 246 2.0 8.0 0.00 0.00 0.00 25 1010.5
20260905233125 101 248 2.0 8.0 0.00 0.00 0.00 26 1010.5
20260905233035 101 248 2.0 8.0 0.00 0.00 0.00 25 1010.5
20260905232937 101 247 1.0 8.0 0.00 0.00 0.00 25 1010.5
20260905232818 101 247 1.0 8.0 0.00 0.00 0.00 26 1010.4
20260905232727 101 246 2.0 8.0 0.00 0.00 0.00 25 1010.4
20260905232647 101 246 3.0 8.0 0.00 0.00 0.00 25 1010.5
20260905232535 101 247 3.0 8.0 0.00 0.00 0.00 25 1010.5
20260905232421 101 250 2.0 7.0 0.00 0.00 0.00 25 1010.4
20260905232323 102 250 2.0 7.0 0.00 0.00 0.00 25 1010.5
20260905232254 102 249 2.0 8.0 0.00 0.00 0.00 25 1010.5
20260905232133 102 238 2.0 8.0 0.00 0.00 0.00 25 1010.5
20260905232016 102 235 2.0 8.0 0.00 0.00 0.00 25 1010.5
20260905231924 102 235 2.0 9.0 0.00 0.00 0.00 25 1010.5
20260905231830 102 234 3.0 9.0 0.00 0.00 0.00 25 1010.5
20260905231738 102 235 3.0 9.0 0.00 0.00 0.00 25 1010.5
20260905231619 102 234 2.0 11.0 0.00 0.00 0.00 25 1010.5
20260905231548 102 234 3.0 11.0 0.00 0.00 0.00 25 1010.5
20260905231429 101 240 4.0 11.0 0.00 0.00 0.00 25 1010.5
20260905231357 101 238 4.0 11.0 0.00 0.00 0.00 25 1010.5
20260905231218 101 233 5.0 11.0 0.00 0.00 0.00 25 1010.5
20260905231125 102 233 5.0 11.0 0.00 0.00 0.00 25 1010.5
20260905231026 102 217 5.0 11.0 0.00 0.00 0.00 25 1010.5
20260905230936 102 217 5.0 11.0 0.00 0.00 0.00 25 1010.5
20260905230819 102 217 5.0 11.0 0.00 0.00 0.00 24 1010.6
20260905230720 102 224 3.0 9.0 0.00 0.00 0.00 25 1010.6
20260905230629 103 263 3.0 9.0 0.00 0.00 0.00 24 1010.6
20260905230530 103 269 3.0 6.0 0.00 0.00 0.00 24 1010.7
20260905230416 103 271 2.0 8.0 0.00 0.00 0.00 24 1010.7
20260905230326 103 270 2.0 8.0 0.00 0.00 0.00 25 1010.8
20260905230227 103 271 2.0 8.0 0.00 0.00 0.00 24 1010.7
20260905230130 103 270 2.0 8.0 0.00 0.00 0.00 25 1010.7
20260905230030 103 270 2.0 11.0 0.00 0.00 0.00 24 1010.7
20260905225920 103 265 2.0 11.0 0.00 0.00 0.00 25 1010.7
20260905225826 102 265 2.0 11.0 0.00 0.00 0.00 25 1010.8
20260905225736 102 265 3.0 11.0 0.00 0.00 0.00 25 1010.8
20260905225619 102 266 3.0 11.0 0.00 0.00 0.00 25 1010.7
20260905225521 102 263 3.0 11.0 0.00 0.00 0.00 26 1010.7
20260905225423 102 264 3.0 11.0 0.00 0.00 0.00 26 1010.6
20260905225333 101 264 3.0 11.0 0.00 0.00 0.00 26 1010.6
20260905225219 101 264 4.0 11.0 0.00 0.00 0.00 26 1010.6
20260905225141 101 256 3.0 8.0 0.00 0.00 0.00 26 1010.7
20260905225049 101 257 3.0 10.0 0.00 0.00 0.00 26 1010.7
20260905224937 101 252 3.0 10.0 0.00 0.00 0.00 26 1010.6
20260905224818 101 257 2.0 10.0 0.00 0.00 0.00 26 1010.7
20260905224720 101 259 3.0 10.0 0.00 0.00 0.00 26 1010.6
20260905224630 101 262 2.0 10.0 0.00 0.00 0.00 26 1010.6
20260905224516 101 274 1.0 10.0 0.00 0.00 0.00 26 1010.7
20260905224419 101 275 2.0 10.0 0.00 0.00 0.00 26 1010.7
20260905224322 100 275 3.0 10.0 0.00 0.00 0.00 26 1010.7
20260905224230 100 273 4.0 10.0 0.00 0.00 0.00 26 1010.7
20260905224133 100 271 3.0 8.0 0.00 0.00 0.00 26 1010.7
20260905224019 100 269 2.0 9.0 0.00 0.00 0.00 26 1010.7
20260905223921 100 273 2.0 9.0 0.00 0.00 0.00 26 1010.7
20260905223832 100 273 3.0 9.0 0.00 0.00 0.00 26 1010.7
20260905223715 101 274 4.0 9.0 0.00 0.00 0.00 25 1010.8
20260905223617 101 276 3.0 9.0 0.00 0.00 0.00 25 1010.8
20260905223525 101 278 3.0 9.0 0.00 0.00 0.00 25 1010.7
20260905223427 101 280 4.0 9.0 0.00 0.00 0.00 25 1010.8
20260905223342 101 280 3.0 9.0 0.00 0.00 0.00 25 1010.8
20260905223224 101 285 2.0 8.0 0.00 0.00 0.00 25 1010.8
20260905223126 101 287 2.0 8.0 0.00 0.00 0.00 26 1010.8
20260905223026 101 284 2.0 8.0 0.00 0.00 0.00 25 1010.8
20260905222934 101 282 3.0 8.0 0.00 0.00 0.00 25 1010.8
20260905222836 101 282 2.0 8.0 0.00 0.00 0.00 25 1010.8
20260905222723 101 283 2.0 7.0 0.00 0.00 0.00 25 1010.8
20260905222636 101 283 2.0 7.0 0.00 0.00 0.00 25 1010.8
20260905222517 101 284 3.0 7.0 0.00 0.00 0.00 25 1010.9
20260905222420 101 285 2.0 8.0 0.00 0.00 0.00 25 1011.0
20260905222321 101 285 2.0 8.0 0.00 0.00 0.00 25 1011.0
20260905222232 101 285 2.0 8.0 0.00 0.00 0.00 25 1011.0
20260905222134 101 285 2.0 8.0 0.00 0.00 0.00 25 1010.9
20260905222040 101 286 1.0 8.0 0.00 0.00 0.00 25 1011.1
20260905221928 101 286 2.0 8.0 0.00 0.00 0.00 25 1011.1
20260905221830 101 285 2.0 8.0 0.00 0.00 0.00 25 1011.0
20260905221732 101 285 2.0 8.0 0.00 0.00 0.00 25 1011.1
20260905221640 101 285 3.0 8.0 0.00 0.00 0.00 25 1011.0
20260905221521 101 284 2.0 8.0 0.00 0.00 0.00 24 1011.1
20260905221429 102 283 1.0 7.0 0.00 0.00 0.00 25 1011.1
20260905221337 102 283 2.0 7.0 0.00 0.00 0.00 25 1011.1
20260905221240 102 281 3.0 9.0 0.00 0.00 0.00 24 1011.1
20260905221119 102 281 3.0 9.0 0.00 0.00 0.00 25 1011.0
20260905221030 102 281 2.0 9.0 0.00 0.00 0.00 24 1011.0
20260905220933 102 281 2.0 9.0 0.00 0.00 0.00 25 1011.0
20260905220902 102 281 2.0 9.0 0.00 0.00 0.00 25 1010.9
20260905220747 102 280 1.0 9.0 0.00 0.00 0.00 25 1011.0
20260905220628 102 279 1.0 9.0 0.00 0.00 0.00 25 1011.0
20260905220536 102 279 3.0 10.0 0.00 0.00 0.00 25 1011.0
20260905220418 102 278 2.0 11.0 0.00 0.00 0.00 24 1011.0
20260905220345 102 278 2.0 11.0 0.00 0.00 0.00 25 1011.0
20260905220225 102 280 2.0 11.0 0.00 0.00 0.00 24 1011.0
20260905220154 103 280 1.0 11.0 0.00 0.00 0.00 26 1011.0
20260905220029 103 279 2.0 11.0 0.00 0.00 0.00 25 1011.0
20260905215947 103 277 2.0 11.0 0.00 0.00 0.00 24 1011.1
20260905215829 103 276 3.0 11.0 0.00 0.00 0.00 25 1011.1
20260905215730 102 276 4.0 11.0 0.00 0.00 0.00 24 1011.1
20260905215640 103 270 4.0 11.0 0.00 0.00 0.00 24 1011.1
20260905215543 102 249 2.0 6.0 0.00 0.00 0.00 25 1011.1
20260905215451 102 249 1.0 6.0 0.00 0.00 0.00 26 1011.1
20260905215316 102 249 1.0 6.0 0.00 0.00 0.00 25 1011.2
20260905215219 102 248 2.0 7.0 0.00 0.00 0.00 25 1011.2
20260905215129 102 248 2.0 7.0 0.00 0.00 0.00 25 1011.2
20260905215031 102 248 2.0 7.0 0.00 0.00 0.00 25 1011.1
20260905214933 102 253 2.0 7.0 0.00 0.00 0.00 25 1011.2
20260905214815 102 254 2.0 7.0 0.00 0.00 0.00 25 1011.2
20260905214729 102 262 1.0 7.0 0.00 0.00 0.00 26 1011.2
20260905214631 102 262 2.0 7.0 0.00 0.00 0.00 24 1011.2
20260905214533 102 262 3.0 7.0 0.00 0.00 0.00 25 1011.1
20260905214415 102 262 3.0 7.0 0.00 0.00 0.00 24 1011.2
20260905214324 103 266 2.0 6.0 0.00 0.00 0.00 25 1011.3
20260905214226 102 269 2.0 7.0 0.00 0.00 0.00 25 1011.2
20260905214132 102 270 1.0 7.0 0.00 0.00 0.00 25 1011.2
20260905214041 102 273 1.0 7.0 0.00 0.00 0.00 25 1011.2
20260905213923 102 273 0.0 7.0 0.00 0.00 0.00 26 1011.2
20260905213822 102 273 1.0 7.0 0.00 0.00 0.00 24 1011.3
20260905213731 102 273 2.0 7.0 0.00 0.00 0.00 25 1011.3
20260905213630 102 273 2.0 7.0 0.00 0.00 0.00 25 1011.3
20260905213540 102 273 2.0 9.0 0.00 0.00 0.00 26 1011.3
20260905213445 102 273 2.0 9.0 0.00 0.00 0.00 25 1011.3
20260905213355 103 270 2.0 9.0 0.00 0.00 0.00 25 1011.3
20260905213216 103 268 1.0 9.0 0.00 0.00 0.00 25 1011.3
20260905213118 102 266 1.0 9.0 0.00 0.00 0.00 26 1011.3
20260905213026 102 262 2.0 9.0 0.00 0.00 0.00 25 1011.3
20260905212929 103 262 2.0 9.0 0.00 0.00 0.00 25 1011.3
20260905212829 102 263 2.0 9.0 0.00 0.00 0.00 26 1011.4
20260905212720 102 262 2.0 9.0 0.00 0.00 0.00 25 1011.3
20260905212640 102 262 2.0 6.0 0.00 0.00 0.00 25 1011.4
20260905212550 103 286 1.0 6.0 0.00 0.00 0.00 25 1011.4
20260905212457 103 287 1.0 6.0 0.00 0.00 0.00 25 1011.4
20260905212318 103 287 1.0 6.0 0.00 0.00 0.00 24 1011.5
20260905212220 103 287 1.0 6.0 0.00 0.00 0.00 25 1011.5
20260905212125 103 287 1.0 6.0 0.00 0.00 0.00 25 1011.5
20260905212027 103 287 1.0 6.0 0.00 0.00 0.00 25 1011.5
20260905211939 103 286 1.0 8.0 0.00 0.00 0.00 27 1011.6
20260905211848 103 285 1.0 8.0 0.00 0.00 0.00 26 1011.5
20260905211750 103 284 0.0 8.0 0.00 0.00 0.00 25 1011.5
20260905211637 104 284 0.0 8.0 0.00 0.00 0.00 24 1011.7
20260905211520 105 284 1.0 8.0 0.00 0.00 0.00 24 1011.8
20260905211422 105 284 1.0 8.0 0.00 0.00 0.00 25 1011.7
20260905211325 105 284 1.0 8.0 0.00 0.00 0.00 24 1011.7
20260905211217 104 282 2.0 8.0 0.00 0.00 0.00 25 1011.7
20260905211119 103 282 2.0 8.0 0.00 0.00 0.00 25 1011.7
20260905211020 103 281 1.0 2.0 0.00 0.00 0.00 24 1011.7
20260905210929 103 281 1.0 2.0 0.00 0.00 0.00 24 1011.7
20260905210851 103 281 1.0 2.0 0.00 0.00 0.00 26 1011.7
20260905210739 103 281 0.0 2.0 0.00 0.00 0.00 26 1011.8
20260905210621 102 281 0.0 2.0 0.00 0.00 0.00 27 1011.8
20260905210529 101 281 0.0 2.0 0.00 0.00 0.00 27 1011.8
20260905210438 101 281 0.0 2.0 0.00 0.00 0.00 28 1011.7
20260905210320 101 281 0.0 2.0 0.00 0.00 0.00 27 1011.8
20260905210222 100 281 0.0 4.0 0.00 0.00 0.00 27 1011.8
20260905210124 100 281 0.0 4.0 0.00 0.00 0.00 26 1011.8
20260905210047 100 281 0.0 4.0 0.00 0.00 0.00 26 1011.8
20260905205940 100 281 0.0 4.0 0.00 0.00 0.00 27 1011.8
20260905205831 101 281 0.0 4.0 0.00 0.00 0.00 27 1011.8
20260905205731 101 281 1.0 4.0 0.00 0.00 0.00 27 1011.8
20260905205634 101 281 1.0 4.0 0.00 0.00 0.00 26 1011.9
20260905205516 101 281 1.0 4.0 0.00 0.00 0.00 26 1011.9
20260905205425 101 281 1.0 4.0 0.00 0.00 0.00 27 1011.9
20260905205330 101 281 1.0 4.0 0.00 0.00 0.00 27 1011.9
20260905205234 101 281 1.0 4.0 0.00 0.00 0.00 26 1011.8
20260905205141 101 281 1.0 4.0 0.00 0.00 0.00 28 1011.8
20260905205021 101 281 1.0 4.0 0.00 0.00 0.00 26 1011.9
20260905204923 101 281 1.0 4.0 0.00 0.00 0.00 27 1011.9
20260905204833 101 281 1.0 4.0 0.00 0.00 0.00 26 1011.9
20260905204718 101 281 1.0 5.0 0.00 0.00 0.00 26 1011.9
20260905204619 101 281 2.0 5.0 0.00 0.00 0.00 27 1012.0
20260905204529 101 281 1.0 5.0 0.00 0.00 0.00 26 1012.0
20260905204430 102 281 1.0 5.0 0.00 0.00 0.00 27 1012.0
20260905204333 102 281 1.0 5.0 0.00 0.00 0.00 27 1012.0
20260905204214 102 281 1.0 5.0 0.00 0.00 0.00 26 1012.2
20260905204129 102 281 1.0 5.0 0.00 0.00 0.00 27 1012.2
20260905204031 102 281 1.0 5.0 0.00 0.00 0.00 26 1012.1
20260905203942 102 281 1.0 5.0 0.00 0.00 0.00 26 1012.2
20260905203825 102 281 2.0 5.0 0.00 0.00 0.00 26 1012.2
20260905203727 102 280 2.0 5.0 0.00 0.00 0.00 26 1012.2
20260905203629 103 276 2.0 5.0 0.00 0.00 0.00 26 1012.2
20260905203543 103 273 2.0 5.0 0.00 0.00 0.00 27 1012.2
20260905203422 102 266 1.0 5.0 0.00 0.00 0.00 26 1012.3
20260905203324 102 262 1.0 7.0 0.00 0.00 0.00 27 1012.3